M I D A S
Marine Information and Data Acquisition System
Tripno 2280 of the Zeeleeuw from 2012-03-26 06:45:06 to 2012-03-26 15:07:12
Back to CruiseResearch ActivitiesStationsMapUnderway DataData graphs

EquipmentUnitsComment
TimeDGPSUTC
LatitudeDGPSDM.mWGS84
LongitudeDGPSDM.mWGS84
TemperatureSBE03/SBE38deg celciusITS90
ConductivitySBE21S/mITS90
SalinitySBE21 Practical Salinity Units
ChlorophylAChelsea fluorimeterg/lCalibrated in Aceton
Missing or incorrect values are displayed as -999
Sea surface data collected by the RV Zeeleeuw from 2012-03-26 06:21:21 to 2012-03-26 15:28:32
                                                                                    Next 1000 lines
Time Latitude Longitude Temperature Conductivity Salinity ChlorophylA
2012-03-26 06:21:31 51°13.638 2°56.021 14.3982 0.036438 0.187081 -2.458615
2012-03-26 06:21:36 51°13.638 2°56.021 14.3985 0.036438 0.187081 -2.458615
2012-03-26 06:21:41 51°13.638 2°56.021 14.3988 0.036438 0.187081 -2.458615
2012-03-26 06:21:46 51°13.638 2°56.021 14.3984 0.036438 0.187081 -2.458615
2012-03-26 06:21:51 51°13.638 2°56.021 14.3988 0.036438 0.187081 -2.458615
2012-03-26 06:21:56 51°13.638 2°56.021 14.3989 0.036438 0.187081 -2.458615
2012-03-26 06:22:01 51°13.638 2°56.021 14.3994 0.036438 0.187084 -2.458615
2012-03-26 06:22:06 51°13.638 2°56.021 14.3991 0.036438 0.187084 -2.458615
2012-03-26 06:22:11 51°13.638 2°56.021 14.3994 0.036438 0.187087 -2.458615
2012-03-26 06:22:16 51°13.638 2°56.021 14.3999 0.036438 0.187087 -2.458615
2012-03-26 06:22:21 51°13.638 2°56.021 14.3995 0.036438 0.187087 -2.458615
2012-03-26 06:22:26 51°13.638 2°56.021 14.4002 0.036438 0.18709 -2.458615
2012-03-26 06:22:31 51°13.638 2°56.021 14.4005 0.036438 0.187087 -2.458615
2012-03-26 06:22:36 51°13.638 2°56.021 14.4005 0.036336 0.186558 -2.458615
2012-03-26 06:22:41 51°13.638 2°56.021 14.4008 0.036336 0.186558 -2.458615
2012-03-26 06:22:46 51°13.638 2°56.021 14.4012 0.036336 0.186558 -2.458615
2012-03-26 06:22:51 51°13.638 2°56.021 14.4011 0.036336 0.186561 -2.458615
2012-03-26 06:22:56 51°13.638 2°56.021 14.401 0.036233 0.186029 -2.458615
2012-03-26 06:23:01 51°13.638 2°56.021 14.4016 0.036336 0.186561 -2.458615
2012-03-26 06:23:06 51°13.637 2°56.021 14.4019 0.036336 0.186564 -2.458615
2012-03-26 06:23:11 51°13.638 2°56.021 14.4024 0.036336 0.186564 -2.458615
2012-03-26 06:23:15 51°13.638 2°56.021 14.4024 0.036336 0.186564 -2.458615
2012-03-26 06:23:21 51°13.638 2°56.021 14.4028 0.036336 0.186564 -2.458615
2012-03-26 06:23:26 51°13.638 2°56.021 14.4025 0.036336 0.186564 -2.458615
2012-03-26 06:23:31 51°13.637 2°56.021 14.4028 0.036336 0.186567 -2.458615
2012-03-26 06:23:35 51°13.637 2°56.021 14.4034 0.036336 0.186567 -2.458615
2012-03-26 06:23:41 51°13.637 2°56.02 14.4038 0.036336 0.186567 -2.458615
2012-03-26 06:23:46 51°13.637 2°56.02 14.404 0.036336 0.186567 -2.458615
2012-03-26 06:23:51 51°13.637 2°56.02 14.4041 0.036336 0.18657 -2.458615
2012-03-26 06:23:55 51°13.637 2°56.02 14.4041 0.036438 0.187102 -2.458615
2012-03-26 06:24:01 51°13.637 2°56.02 14.4042 0.036438 0.187102 -2.458615
2012-03-26 06:24:06 51°13.636 2°56.02 14.4044 0.036438 0.187105 -2.458615
2012-03-26 06:24:11 51°13.636 2°56.02 14.4047 0.036336 0.186573 -2.458615
2012-03-26 06:24:15 51°13.636 2°56.02 14.4051 0.036336 0.186573 -2.458615
2012-03-26 06:24:21 51°13.636 2°56.02 14.4047 0.036336 0.186576 -2.458615
2012-03-26 06:24:26 51°13.636 2°56.02 14.4048 0.036336 0.186576 -2.458615
2012-03-26 06:24:31 51°13.636 2°56.02 14.4052 0.036233 0.186043 -2.458615
2012-03-26 06:24:36 51°13.636 2°56.02 14.4053 0.036336 0.186576 -2.458615
2012-03-26 06:24:41 51°13.636 2°56.019 14.405 0.036336 0.186579 -2.458615
2012-03-26 06:24:46 51°13.636 2°56.02 14.4056 0.036336 0.186579 -2.458615
2012-03-26 06:24:51 51°13.637 2°56.02 14.4061 0.036336 0.186579 -2.458615
2012-03-26 06:24:56 51°13.637 2°56.02 14.4059 0.036336 0.186579 -2.458615
2012-03-26 06:25:01 51°13.636 2°56.02 14.406 0.036336 0.186582 -2.458615
2012-03-26 06:25:06 51°13.636 2°56.02 14.406 0.036336 0.186582 -2.458615
2012-03-26 06:25:11 51°13.636 2°56.02 14.4059 0.036336 0.186582 -2.458615
2012-03-26 06:25:16 51°13.636 2°56.02 14.4064 0.036336 0.186582 -2.458615
2012-03-26 06:25:21 51°13.636 2°56.02 14.4062 0.036336 0.186582 -2.458615
2012-03-26 06:25:26 51°13.636 2°56.02 14.4063 0.036336 0.186585 -2.458615
2012-03-26 06:25:31 51°13.637 2°56.021 14.4062 0.036336 0.186587 -2.458615
2012-03-26 06:25:35 51°13.636 2°56.021 14.4066 0.036336 0.186587 -2.458615
2012-03-26 06:25:41 51°13.636 2°56.02 14.4067 0.036438 0.187123 -2.458615
2012-03-26 06:25:46 51°13.636 2°56.02 14.4071 0.036438 0.187123 -2.458615
2012-03-26 06:25:51 51°13.636 2°56.02 14.4073 0.036336 0.18659 -2.458615
2012-03-26 06:25:55 51°13.636 2°56.02 14.4074 0.036336 0.18659 -2.458615
2012-03-26 06:26:01 51°13.636 2°56.02 14.407 0.036336 0.18659 -2.458615
2012-03-26 06:26:06 51°13.636 2°56.02 14.4077 0.036336 0.186593 -2.458615
2012-03-26 06:26:11 51°13.636 2°56.02 14.4074 0.036336 0.186593 -2.458615
2012-03-26 06:26:15 51°13.636 2°56.02 14.4071 0.036336 0.186593 -2.458615
2012-03-26 06:26:21 51°13.636 2°56.021 14.4074 0.036336 0.186593 -2.458615
2012-03-26 06:26:26 51°13.636 2°56.02 14.4075 0.036336 0.186596 -2.458615
2012-03-26 06:26:31 51°13.636 2°56.02 14.4076 0.036336 0.186596 -2.458615
2012-03-26 06:26:35 51°13.636 2°56.02 14.408 0.036233 0.186064 -2.458615
2012-03-26 06:26:41 51°13.636 2°56.02 14.4086 0.036336 0.186599 -2.458615
2012-03-26 06:26:46 51°13.636 2°56.02 14.4085 0.036336 0.186599 -2.458615
2012-03-26 06:26:51 51°13.636 2°56.02 14.4091 0.036336 0.186599 -2.458615
2012-03-26 06:26:56 51°13.636 2°56.02 14.4096 0.036336 0.186599 -2.458615
2012-03-26 06:27:01 51°13.636 2°56.02 14.4096 0.036336 0.186602 -2.458615
2012-03-26 06:27:06 51°13.636 2°56.02 14.4098 0.036233 0.186073 -2.458615
2012-03-26 06:27:11 51°13.636 2°56.02 14.4099 0.036233 0.186073 -2.458615
2012-03-26 06:27:16 51°13.636 2°56.02 14.4101 0.036233 0.186073 -2.458615
2012-03-26 06:27:21 51°13.636 2°56.02 14.4105 0.036233 0.186073 -2.458615
2012-03-26 06:27:26 51°13.636 2°56.02 14.4103 0.036233 0.186073 -2.458615
2012-03-26 06:27:31 51°13.636 2°56.02 14.4109 0.036233 0.186076 -2.458615
2012-03-26 06:27:36 51°13.636 2°56.02 14.4115 0.036233 0.186076 -2.458615
2012-03-26 06:27:41 51°13.636 2°56.02 14.4116 0.036233 0.186079 -2.458615
2012-03-26 06:27:46 51°13.636 2°56.02 14.4115 0.036233 0.186079 -2.458615
2012-03-26 06:27:51 51°13.636 2°56.019 14.4117 0.036233 0.186079 -2.458615
2012-03-26 06:27:55 51°13.636 2°56.019 14.4123 0.03613 0.185546 -2.458615
2012-03-26 06:28:01 51°13.636 2°56.02 14.412 0.03613 0.185546 -2.458615
2012-03-26 06:28:06 51°13.636 2°56.02 14.4126 0.03613 0.185549 -2.458615
2012-03-26 06:28:11 51°13.636 2°56.02 14.4126 0.03613 0.185549 -2.458615
2012-03-26 06:28:15 51°13.636 2°56.02 14.4133 0.03613 0.185549 -2.458615
2012-03-26 06:28:21 51°13.636 2°56.02 14.4132 0.03613 0.185549 -2.458615
2012-03-26 06:28:26 51°13.636 2°56.02 14.4136 0.03613 0.185552 -2.458615
2012-03-26 06:28:31 51°13.636 2°56.02 14.4138 0.03613 0.185555 -2.458615
2012-03-26 06:28:35 51°13.636 2°56.02 14.414 0.03613 0.185555 -2.458615
2012-03-26 06:28:41 51°13.636 2°56.02 14.4138 0.036027 0.185026 -2.458615
2012-03-26 06:28:46 51°13.636 2°56.02 14.4143 0.036027 0.185026 -2.458615
2012-03-26 06:28:51 51°13.636 2°56.02 14.4149 0.03613 0.185558 -2.458615
2012-03-26 06:28:56 51°13.636 2°56.02 14.4151 0.036027 0.185026 -2.458615
2012-03-26 06:29:01 51°13.636 2°56.02 14.4151 0.03613 0.185561 -2.458615
2012-03-26 06:29:06 51°13.636 2°56.02 14.4154 0.036027 0.185029 -2.458615
2012-03-26 06:29:11 51°13.636 2°56.02 14.4159 0.03613 0.185561 -2.458615
2012-03-26 06:29:15 51°13.636 2°56.02 14.4159 0.03613 0.185561 -2.458615
2012-03-26 06:29:21 51°13.636 2°56.02 14.4159 0.036027 0.185032 -2.458615
2012-03-26 06:29:26 51°13.636 2°56.02 14.4163 0.03613 0.185564 -2.458615
2012-03-26 06:29:31 51°13.636 2°56.02 14.4164 0.03613 0.185567 -2.458615
2012-03-26 06:29:36 51°13.636 2°56.02 14.4168 0.036027 0.185035 -2.458615
2012-03-26 06:29:41 51°13.636 2°56.02 14.4167 0.036027 0.185037 -2.458615
2012-03-26 06:29:46 51°13.636 2°56.02 14.4171 0.036027 0.185037 -2.458615
2012-03-26 06:29:51 51°13.636 2°56.02 14.4171 0.036027 0.185037 -2.458615
2012-03-26 06:29:56 51°13.635 2°56.02 14.4174 0.036027 0.18504 -2.458615
2012-03-26 06:30:01 51°13.635 2°56.02 14.4174 0.036027 0.18504 -2.458615
2012-03-26 06:30:06 51°13.635 2°56.02 14.4177 0.036027 0.18504 -2.458615
2012-03-26 06:30:11 51°13.635 2°56.02 14.4178 0.036027 0.185043 -2.458615
2012-03-26 06:30:15 51°13.635 2°56.02 14.418 0.036027 0.185043 -2.458615
2012-03-26 06:30:21 51°13.635 2°56.02 14.4178 0.036027 0.185046 -2.458615
2012-03-26 06:30:26 51°13.635 2°56.02 14.4181 0.036027 0.185046 -2.458615
2012-03-26 06:30:31 51°13.636 2°56.019 14.4187 0.036027 0.185046 -2.458615
2012-03-26 06:30:35 51°13.636 2°56.019 14.4187 0.036027 0.185049 -2.458615
2012-03-26 06:30:41 51°13.636 2°56.019 14.4191 0.036027 0.185049 -2.458615
2012-03-26 06:30:46 51°13.637 2°56.019 14.419 0.036027 0.185049 -2.458615
2012-03-26 06:30:51 51°13.637 2°56.019 14.419 0.036027 0.185052 -2.458615
2012-03-26 06:30:55 51°13.637 2°56.019 14.4189 0.036027 0.185052 -2.458615
2012-03-26 06:31:01 51°13.636 2°56.019 14.4196 0.036027 0.185055 -2.458615
2012-03-26 06:31:06 51°13.636 2°56.019 14.4193 0.035924 0.184523 -2.458615
2012-03-26 06:31:11 51°13.636 2°56.019 14.4193 0.035822 0.183991 -2.458615
2012-03-26 06:31:16 51°13.636 2°56.019 14.42 0.035822 0.183991 -2.458615
2012-03-26 06:31:21 51°13.636 2°56.019 14.4198 0.035924 0.184526 -2.458615
2012-03-26 06:31:26 51°13.636 2°56.019 14.4203 0.035924 0.184526 -2.458615
2012-03-26 06:31:31 51°13.636 2°56.019 14.4203 0.035924 0.184529 -2.458615
2012-03-26 06:31:36 51°13.636 2°56.019 14.4165 0.035924 0.184529 -2.458615
2012-03-26 06:31:41 51°13.636 2°56.019 14.4143 0.042093 0.216631 -2.458615
2012-03-26 06:31:46 51°13.636 2°56.019 14.4171 0.042093 0.216631 -2.458615
2012-03-26 06:31:51 51°13.636 2°56.019 14.4163 0.041476 0.213424 -2.458615
2012-03-26 06:31:56 51°13.636 2°56.019 14.4189 0.041271 0.212361 -2.458615
2012-03-26 06:32:01 51°13.636 2°56.019 14.4185 0.042401 0.21827 -2.458615
2012-03-26 06:32:06 51°13.636 2°56.019 14.4211 0.040756 0.209683 -2.458615
2012-03-26 06:32:11 51°13.636 2°56.019 14.4194 0.042299 0.217736 -2.458615
2012-03-26 06:32:16 51°13.636 2°56.019 14.422 0.042299 0.217736 -2.458615
2012-03-26 06:32:21 51°13.636 2°56.019 14.4199 0.041373 0.212901 -2.458615
2012-03-26 06:32:26 51°13.636 2°56.019 14.4226 0.041579 0.213978 -2.458615
2012-03-26 06:32:31 51°13.636 2°56.019 14.4207 0.041682 0.214514 -2.458615
2012-03-26 06:32:35 51°13.636 2°56.019 14.4226 0.041271 0.212368 -2.458615
2012-03-26 06:32:41 51°13.636 2°56.019 14.4207 0.042093 0.216665 -2.458615
2012-03-26 06:32:46 51°13.636 2°56.019 14.4236 0.042093 0.216665 -2.458615
2012-03-26 06:32:51 51°13.636 2°56.019 14.4225 0.041065 0.211299 -2.458615
2012-03-26 06:32:55 51°13.636 2°56.019 14.425 0.041887 0.215591 -2.458615
2012-03-26 06:33:01 51°13.636 2°56.019 14.4229 0.041682 0.214521 -2.458615
2012-03-26 06:33:06 51°13.636 2°56.019 14.4243 0.041476 0.213448 -2.458615
2012-03-26 06:33:11 51°13.636 2°56.019 14.4235 0.041682 0.214521 -2.458615
2012-03-26 06:33:16 51°13.636 2°56.019 14.4242 0.041682 0.214521 -2.458615
2012-03-26 06:33:21 51°13.636 2°56.019 14.4232 0.041373 0.212915 -2.458615
2012-03-26 06:33:26 51°13.636 2°56.019 14.4238 0.041682 0.214528 -2.458615
2012-03-26 06:33:31 51°13.636 2°56.019 14.4242 0.041373 0.212918 -2.458615
2012-03-26 06:33:36 51°13.636 2°56.019 14.4256 0.041476 0.213458 -2.458615
2012-03-26 06:33:41 51°13.636 2°56.019 14.4251 0.041476 0.213462 -2.458615
2012-03-26 06:33:46 51°13.636 2°56.019 14.4257 0.041476 0.213462 -2.458615
2012-03-26 06:33:51 51°13.636 2°56.019 14.4258 0.041373 0.212928 -2.458615
2012-03-26 06:33:56 51°13.636 2°56.019 14.426 0.041579 0.214002 -2.458615
2012-03-26 06:34:01 51°13.636 2°56.019 14.4261 0.041579 0.214002 -2.458615
2012-03-26 06:34:06 51°13.636 2°56.019 14.4265 0.041373 0.212932 -2.458615
2012-03-26 06:34:11 51°13.636 2°56.019 14.4262 0.041579 0.214005 -2.458615
2012-03-26 06:34:16 51°13.636 2°56.019 14.4271 0.041579 0.214005 -2.458615
2012-03-26 06:34:21 51°13.636 2°56.019 14.4277 0.041373 0.212932 -2.458615
2012-03-26 06:34:26 51°13.636 2°56.019 14.4275 0.041785 0.215079 -2.458615
2012-03-26 06:34:31 51°13.636 2°56.019 14.4275 0.041785 0.215079 -2.458615
2012-03-26 06:34:36 51°13.635 2°56.019 14.4286 0.041373 0.212935 -2.458615
2012-03-26 06:34:41 51°13.635 2°56.019 14.4281 0.041887 0.215623 -2.458615
2012-03-26 06:34:46 51°13.635 2°56.019 14.4287 0.041887 0.215623 -2.458615
2012-03-26 06:34:51 51°13.635 2°56.019 14.4283 0.041476 0.213479 -2.458615
2012-03-26 06:34:55 51°13.635 2°56.019 14.4285 0.041887 0.215629 -2.458615
2012-03-26 06:35:01 51°13.636 2°56.019 14.4286 0.041887 0.215633 -2.458615
2012-03-26 06:35:06 51°13.635 2°56.019 14.4291 0.04199 0.216177 -2.458615
2012-03-26 06:35:11 51°13.635 2°56.019 14.4289 0.041785 0.215103 -2.458615
2012-03-26 06:35:15 51°13.635 2°56.019 14.4301 0.041785 0.215103 -2.458615
2012-03-26 06:35:21 51°13.636 2°56.019 14.4301 0.041887 0.215643 -2.458615
2012-03-26 06:35:26 51°13.635 2°56.019 14.4303 0.041785 0.215106 -2.458615
2012-03-26 06:35:31 51°13.636 2°56.019 14.4308 0.041887 0.215647 -2.458615
2012-03-26 06:35:35 51°13.636 2°56.019 14.4309 0.041887 0.215647 -2.458615
2012-03-26 06:35:41 51°13.635 2°56.019 14.4311 0.04199 0.216187 -2.458615
2012-03-26 06:35:46 51°13.635 2°56.019 14.4312 0.04199 0.216187 -2.458615
2012-03-26 06:35:51 51°13.636 2°56.019 14.4319 0.042093 0.216724 -2.458615
2012-03-26 06:35:56 51°13.635 2°56.019 14.4317 0.041887 0.215654 -2.458615
2012-03-26 06:36:01 51°13.635 2°56.019 14.4328 0.04199 0.216194 -2.458615
2012-03-26 06:36:06 51°13.636 2°56.019 14.4327 0.041887 0.215657 -2.458615
2012-03-26 06:36:11 51°13.635 2°56.019 14.4326 0.04199 0.216194 -2.458615
2012-03-26 06:36:16 51°13.635 2°56.019 14.433 0.04199 0.216194 -2.458615
2012-03-26 06:36:21 51°13.635 2°56.019 14.4333 0.042093 0.216738 -2.458615
2012-03-26 06:36:26 51°13.635 2°56.019 14.4336 0.042093 0.216738 -2.458615
2012-03-26 06:36:31 51°13.635 2°56.019 14.4339 0.042093 0.216742 -2.458615
2012-03-26 06:36:36 51°13.635 2°56.02 14.4343 0.042196 0.217283 -2.458615
2012-03-26 06:36:41 51°13.635 2°56.02 14.4351 0.04199 0.216212 -2.458615
2012-03-26 06:36:46 51°13.635 2°56.019 14.4351 0.04199 0.216212 -2.458615
2012-03-26 06:36:51 51°13.635 2°56.02 14.4361 0.042093 0.216749 -2.458615
2012-03-26 06:36:55 51°13.635 2°56.02 14.4362 0.04199 0.216215 -2.458615
2012-03-26 06:37:01 51°13.635 2°56.02 14.4364 0.041785 0.215141 -2.458615
2012-03-26 06:37:06 51°13.635 2°56.02 14.4372 0.041682 0.214607 -2.458615
2012-03-26 06:37:11 51°13.634 2°56.021 14.4377 0.041682 0.214607 -2.458615
2012-03-26 06:37:15 51°13.634 2°56.021 14.4372 0.041682 0.214607 -2.458615
2012-03-26 06:37:21 51°13.634 2°56.021 14.4373 0.04199 0.216222 -2.458615
2012-03-26 06:37:26 51°13.633 2°56.021 14.4376 0.042093 0.216763 -2.458615
2012-03-26 06:37:31 51°13.633 2°56.021 14.4376 0.042299 0.217841 -2.458615
2012-03-26 06:37:35 51°13.633 2°56.021 14.4385 0.042401 0.218378 -2.458615
2012-03-26 06:37:41 51°13.634 2°56.021 14.4391 0.042401 0.218385 -2.458615
2012-03-26 06:37:46 51°13.634 2°56.021 14.4398 0.042401 0.218385 -2.458615
2012-03-26 06:37:51 51°13.634 2°56.021 14.4402 0.042093 0.216773 -2.458615
2012-03-26 06:37:56 51°13.634 2°56.02 14.4409 0.042093 0.216773 -2.458615
2012-03-26 06:38:01 51°13.634 2°56.02 14.4403 0.041887 0.215702 -2.458615
2012-03-26 06:38:06 51°13.634 2°56.02 14.4407 0.041785 0.215165 -2.458615
2012-03-26 06:38:11 51°13.635 2°56.02 14.4407 0.041682 0.214631 -2.458615
2012-03-26 06:38:16 51°13.635 2°56.02 14.4402 0.041682 0.214631 -2.458615
2012-03-26 06:38:21 51°13.635 2°56.02 14.4409 0.041682 0.214631 -2.458615
2012-03-26 06:38:26 51°13.635 2°56.019 14.4407 0.041785 0.215172 -2.458615
2012-03-26 06:38:31 51°13.635 2°56.02 14.441 0.041887 0.215713 -2.458615
2012-03-26 06:38:36 51°13.635 2°56.02 14.4417 0.041785 0.215179 -2.458615
2012-03-26 06:38:41 51°13.635 2°56.02 14.4427 0.041682 0.214642 -2.458615
2012-03-26 06:38:46 51°13.635 2°56.019 14.4433 0.041682 0.214642 -2.458615
2012-03-26 06:38:51 51°13.635 2°56.02 14.4434 0.041682 0.214645 -2.458615
2012-03-26 06:38:56 51°13.635 2°56.02 14.4449 0.041579 0.214112 -2.458615
2012-03-26 06:39:01 51°13.635 2°56.02 14.4445 0.041579 0.214112 -2.458615
2012-03-26 06:39:06 51°13.635 2°56.02 14.4461 0.041682 0.214652 -2.458615
2012-03-26 06:39:11 51°13.634 2°56.019 14.4467 0.041373 0.213045 -2.458615
2012-03-26 06:39:15 51°13.634 2°56.02 14.446 0.041373 0.213045 -2.458615
2012-03-26 06:39:21 51°13.634 2°56.019 14.446 0.041579 0.214118 -2.458615
2012-03-26 06:39:26 51°13.634 2°56.02 14.4468 0.041579 0.214122 -2.458615
2012-03-26 06:39:31 51°13.634 2°56.02 14.447 0.041476 0.213588 -2.458615
2012-03-26 06:39:35 51°13.634 2°56.019 14.4471 0.041579 0.214125 -2.458615
2012-03-26 06:39:41 51°13.634 2°56.019 14.447 0.041579 0.214129 -2.458615
2012-03-26 06:39:46 51°13.634 2°56.019 14.4475 0.041579 0.214129 -2.458615
2012-03-26 06:39:51 51°13.634 2°56.019 14.4479 0.041682 0.214666 -2.458615
2012-03-26 06:39:55 51°13.634 2°56.019 14.4487 0.041579 0.214132 -2.458615
2012-03-26 06:40:00 51°13.634 2°56.019 14.4489 0.041682 0.214673 -2.458615
2012-03-26 06:40:06 51°13.634 2°56.019 14.4497 0.041579 0.214139 -2.458615
2012-03-26 06:40:11 51°13.633 2°56.019 14.4499 0.041682 0.214676 -2.458615
2012-03-26 06:40:16 51°13.633 2°56.019 14.4497 0.041682 0.214676 -2.458615
2012-03-26 06:40:21 51°13.633 2°56.019 14.4504 0.041579 0.214139 -2.458615
2012-03-26 06:40:26 51°13.633 2°56.019 14.4508 0.041785 0.215217 -2.458615
2012-03-26 06:40:31 51°13.633 2°56.019 14.4514 0.041682 0.214683 -2.458615
2012-03-26 06:40:36 51°13.633 2°56.019 14.4512 0.041476 0.213609 -2.458615
2012-03-26 06:40:41 51°13.633 2°56.019 14.4499 0.041373 0.213075 -2.458615
2012-03-26 06:40:46 51°13.633 2°56.018 14.4487 0.041373 0.213075 -2.458615
2012-03-26 06:40:51 51°13.633 2°56.016 14.4482 0.040242 0.20717 -2.458615
2012-03-26 06:40:55 51°13.633 2°56.014 14.4442 0.042607 0.219524 -2.458615
2012-03-26 06:41:01 51°13.634 2°56.01 14.4609 0.041682 0.214693 -2.458615
2012-03-26 06:41:06 51°13.635 2°56.006 14.4569 0.04271 0.22008 -2.458615
2012-03-26 06:41:11 51°13.635 2°56.001 14.4542 0.042196 0.217391 -2.458615
2012-03-26 06:41:15 51°13.636 2°55.996 14.4563 0.042196 0.217391 -2.458615
2012-03-26 06:41:21 51°13.638 2°55.988 14.4583 0.043327 0.223316 -2.458615
2012-03-26 06:41:26 51°13.64 2°55.981 14.4569 0.043018 0.221705 -2.458615
2012-03-26 06:41:31 51°13.641 2°55.973 14.4583 0.042504 0.219011 -2.458615
2012-03-26 06:41:35 51°13.643 2°55.967 14.4579 0.042607 0.219549 -2.458615
2012-03-26 06:41:41 51°13.645 2°55.957 14.4581 0.042299 0.217935 -2.458615
2012-03-26 06:41:46 51°13.647 2°55.948 14.4612 0.042299 0.217935 -2.458615
2012-03-26 06:41:51 51°13.65 2°55.94 14.4597 0.042813 0.220621 -2.458615
2012-03-26 06:41:55 51°13.651 2°55.932 14.46 0.042401 0.21847 -2.458615
2012-03-26 06:42:01 51°13.654 2°55.921 14.4593 0.042093 0.21686 -2.458615
2012-03-26 06:42:06 51°13.657 2°55.912 14.4618 0.042607 0.219552 -2.458615
2012-03-26 06:42:11 51°13.66 2°55.902 14.4602 0.042504 0.219018 -2.458615
2012-03-26 06:42:16 51°13.663 2°55.893 14.461 0.042504 0.219018 -2.458615
2012-03-26 06:42:21 51°13.666 2°55.883 14.4614 0.042401 0.218487 -2.458615
2012-03-26 06:42:26 51°13.67 2°55.874 14.462 0.042401 0.218491 -2.458615
2012-03-26 06:42:31 51°13.673 2°55.864 14.462 0.042299 0.21796 -2.458615
2012-03-26 06:42:36 51°13.677 2°55.854 14.464 0.042504 0.219039 -2.458615
2012-03-26 06:42:41 51°13.681 2°55.844 14.4643 0.042813 0.220657 -2.458615
2012-03-26 06:42:46 51°13.685 2°55.835 14.4639 0.042813 0.220657 -2.458615
2012-03-26 06:42:51 51°13.689 2°55.826 14.4644 0.042504 0.219043 -2.458615
2012-03-26 06:42:56 51°13.694 2°55.816 14.4652 0.042299 0.21797 -2.458615
2012-03-26 06:43:01 51°13.699 2°55.807 14.4627 0.042607 0.219588 -2.458615
2012-03-26 06:43:06 51°13.704 2°55.798 14.4645 0.042196 0.217436 -2.458615
2012-03-26 06:43:11 51°13.709 2°55.79 14.4628 0.042196 0.217436 -2.458615
2012-03-26 06:43:16 51°13.714 2°55.781 14.4638 0.04271 0.220129 -2.458615
2012-03-26 06:43:21 51°13.719 2°55.773 14.4643 0.042607 0.219598 -2.458615
2012-03-26 06:43:26 51°13.725 2°55.764 14.4658 0.042813 0.220678 -2.458615
2012-03-26 06:43:31 51°13.73 2°55.756 14.4625 0.042504 0.219067 -2.458615
2012-03-26 06:43:35 51°13.734 2°55.749 14.4676 0.042504 0.219071 -2.458615
2012-03-26 06:43:41 51°13.741 2°55.739 14.4657 0.04271 0.220147 -2.458615
2012-03-26 06:43:46 51°13.746 2°55.731 14.466 0.04271 0.220147 -2.458615
2012-03-26 06:43:51 51°13.752 2°55.723 14.4664 0.042299 0.217999 -2.458615
2012-03-26 06:43:55 51°13.756 2°55.716 14.4676 0.04271 0.220154 -2.458615
2012-03-26 06:44:01 51°13.762 2°55.707 14.4694 0.042401 0.21854 -2.458615
2012-03-26 06:44:06 51°13.767 2°55.699 14.466 0.042299 0.218006 -2.458615
2012-03-26 06:44:11 51°13.773 2°55.691 14.4679 0.042504 0.219081 -2.458615
2012-03-26 06:44:16 51°13.778 2°55.684 14.4676 0.042504 0.219081 -2.458615
2012-03-26 06:44:21 51°13.784 2°55.677 14.4696 0.042196 0.217471 -2.458615
2012-03-26 06:44:26 51°13.789 2°55.67 14.4697 0.042504 0.219088 -2.458615
2012-03-26 06:44:31 51°13.795 2°55.664 14.4708 0.04199 0.216399 -2.458615
2012-03-26 06:44:35 51°13.8 2°55.659 14.4706 0.042196 0.217478 -2.458615
2012-03-26 06:44:41 51°13.807 2°55.653 14.4719 0.04199 0.216403 -2.458615
2012-03-26 06:44:46 51°13.813 2°55.647 14.4718 0.04199 0.216403 -2.458615
2012-03-26 06:44:51 51°13.82 2°55.643 14.4729 0.041682 0.21479 -2.458615
2012-03-26 06:44:56 51°13.827 2°55.638 14.472 0.041785 0.215331 -2.458615
2012-03-26 06:45:01 51°13.833 2°55.634 14.4727 0.041887 0.215872 -2.458615
2012-03-26 06:45:06 51°13.84 2°55.631 14.4725 0.041579 0.214259 -2.458615
2012-03-26 06:45:11 51°13.847 2°55.627 14.4729 0.04199 0.216413 -2.458615
2012-03-26 06:45:16 51°13.854 2°55.624 14.4726 0.04199 0.216413 -2.458615
2012-03-26 06:45:21 51°13.861 2°55.621 14.4746 0.041887 0.215879 -2.458615
2012-03-26 06:45:26 51°13.868 2°55.619 14.476 0.041476 0.213732 -2.458615
2012-03-26 06:45:31 51°13.875 2°55.617 14.4769 0.042299 0.218041 -2.458615
2012-03-26 06:45:36 51°13.881 2°55.615 14.4752 0.041785 0.215355 -2.458615
2012-03-26 06:45:41 51°13.888 2°55.614 14.478 0.041579 0.21428 -2.458615
2012-03-26 06:45:46 51°13.894 2°55.613 14.4747 0.041579 0.21428 -2.458615
2012-03-26 06:45:51 51°13.9 2°55.613 14.4797 0.039831 0.205154 -2.458615
2012-03-26 06:45:55 51°13.905 2°55.613 14.4774 0.040037 0.206223 -2.458615
2012-03-26 06:46:01 51°13.911 2°55.614 14.4766 0.03942 0.203006 -2.458615
2012-03-26 06:46:06 51°13.916 2°55.615 14.4752 0.039626 0.204078 -2.458615
2012-03-26 06:46:11 51°13.922 2°55.617 14.4738 0.039317 0.202473 -2.458615
2012-03-26 06:46:15 51°13.926 2°55.618 14.4735 0.039317 0.202473 -2.458615
2012-03-26 06:46:21 51°13.931 2°55.621 14.4715 0.039626 0.204081 -2.458615
2012-03-26 06:46:26 51°13.936 2°55.623 14.4743 0.039728 0.204621 -2.458615
2012-03-26 06:46:31 51°13.941 2°55.626 14.4768 0.03942 0.203013 -2.458615
2012-03-26 06:46:35 51°13.944 2°55.628 14.4763 0.040037 0.206233 -2.458615
2012-03-26 06:46:41 51°13.948 2°55.631 14.478 0.03942 0.203016 -2.458615
2012-03-26 06:46:46 51°13.952 2°55.634 14.4781 0.03942 0.203016 -2.458615
2012-03-26 06:46:51 51°13.955 2°55.637 14.4808 0.03942 0.203022 -2.458615
2012-03-26 06:46:55 51°13.958 2°55.639 14.4799 0.039111 0.201418 -2.458615
2012-03-26 06:47:01 51°13.961 2°55.643 14.4847 0.039728 0.204637 -2.458615
2012-03-26 06:47:06 51°13.963 2°55.645 14.484 0.039214 0.201963 -2.458615
2012-03-26 06:47:11 51°13.965 2°55.646 14.4871 0.039111 0.201431 -2.458615
2012-03-26 06:47:15 51°13.966 2°55.647 14.4837 0.039111 0.201431 -2.458615
2012-03-26 06:47:21 51°13.967 2°55.648 14.4866 0.039831 0.20518 -2.458615
2012-03-26 06:47:26 51°13.968 2°55.648 14.4866 0.0387 0.199288 -2.458615
2012-03-26 06:47:31 51°13.968 2°55.647 14.4887 0.039523 0.203578 -2.458615
2012-03-26 06:47:35 51°13.969 2°55.647 14.489 0.038803 0.199827 -2.458615
2012-03-26 06:47:41 51°13.969 2°55.645 14.4885 0.039009 0.200898 -2.458615
2012-03-26 06:47:46 51°13.969 2°55.643 14.4871 0.039009 0.200898 -2.458615
2012-03-26 06:47:51 51°13.97 2°55.64 14.486 0.038597 0.198759 -2.458615
2012-03-26 06:47:55 51°13.97 2°55.638 14.4867 0.038392 0.197688 -2.458615
2012-03-26 06:48:01 51°13.97 2°55.633 14.4878 0.037364 0.19234 -2.458615
2012-03-26 06:48:06 51°13.971 2°55.629 14.4866 0.037055 0.190737 -2.458615
2012-03-26 06:48:11 51°13.972 2°55.625 14.4921 0.037467 0.192874 -2.458615
2012-03-26 06:48:15 51°13.973 2°55.621 14.4989 0.037467 0.192874 -2.458615
2012-03-26 06:48:21 51°13.975 2°55.615 14.4997 0.038289 0.197163 -2.458615
2012-03-26 06:48:26 51°13.978 2°55.609 14.5008 0.037672 0.193956 -2.458615
2012-03-26 06:48:30 51°13.98 2°55.604 14.4993 0.038083 0.196099 -2.458615
2012-03-26 06:48:35 51°13.983 2°55.597 14.5019 0.041373 0.213274 -2.458615
2012-03-26 06:48:40 51°13.988 2°55.59 14.5029 0.040654 0.209523 -2.458615
2012-03-26 06:48:45 51°13.992 2°55.582 14.502 0.040654 0.209523 -2.458615
2012-03-26 06:48:51 51°13.999 2°55.572 14.501 0.04014 0.206842 -2.458615
2012-03-26 06:48:55 51°14.004 2°55.565 14.5006 0.039626 0.204163 -2.458615
2012-03-26 06:49:00 51°14.011 2°55.556 14.5007 0.040037 0.206309 -2.458615
2012-03-26 06:49:05 51°14.018 2°55.547 14.5036 0.039317 0.202558 -2.458615
2012-03-26 06:49:10 51°14.026 2°55.538 14.5028 0.038803 0.199878 -2.458615
2012-03-26 06:49:15 51°14.034 2°55.528 14.5026 0.038803 0.199878 -2.458615
2012-03-26 06:49:20 51°14.043 2°55.518 14.5029 0.038495 0.198274 -2.458615
2012-03-26 06:49:25 51°14.052 2°55.508 14.5037 0.038495 0.198274 -2.458615
2012-03-26 06:49:30 51°14.061 2°55.498 14.5065 0.040345 0.207932 -2.458615
2012-03-26 06:49:35 51°14.071 2°55.488 14.5061 0.038083 0.196139 -2.458615
2012-03-26 06:49:40 51°14.081 2°55.478 14.5048 0.043018 0.221926 -2.458615
2012-03-26 06:49:46 51°14.094 2°55.466 14.5108 0.043018 0.221926 -2.458615
2012-03-26 06:49:51 51°14.104 2°55.455 14.5071 0.04014 0.206879 -2.458615
2012-03-26 06:49:55 51°14.112 2°55.446 14.5121 0.042401 0.218712 -2.458615
2012-03-26 06:50:00 51°14.124 2°55.435 14.5084 0.038803 0.199907 -2.458615
2012-03-26 06:50:06 51°14.138 2°55.422 14.5105 0.040037 0.206345 -2.458615
2012-03-26 06:50:11 51°14.149 2°55.41 14.5113 0.038906 0.200446 -2.458615
2012-03-26 06:50:16 51°14.161 2°55.399 14.5123 0.038906 0.200446 -2.458615
2012-03-26 06:50:21 51°14.173 2°55.387 14.5105 0.038803 0.199907 -2.458615
2012-03-26 06:50:26 51°14.185 2°55.375 14.5166 0.040448 0.208503 -2.458615
2012-03-26 06:50:31 51°14.196 2°55.362 14.5103 0.039523 0.203672 -2.458615
2012-03-26 06:50:35 51°14.206 2°55.353 14.5117 0.038495 0.198309 -2.458615
2012-03-26 06:50:40 51°14.217 2°55.34 14.5121 0.043841 0.226271 -2.458615
2012-03-26 06:50:45 51°14.229 2°55.327 14.519 0.043841 0.226271 -2.458615
2012-03-26 06:50:51 51°14.244 2°55.313 14.5162 0.042093 0.217122 -2.458615
2012-03-26 06:50:55 51°14.253 2°55.302 14.5122 0.040242 0.207439 -2.458615
2012-03-26 06:51:01 51°14.268 2°55.288 14.5185 0.044869 0.231687 -2.458615
2012-03-26 06:51:06 51°14.28 2°55.276 14.5217 0.04343 0.22414 -2.458615
2012-03-26 06:51:11 51°14.292 2°55.263 14.5192 0.041579 0.214439 -2.458615
2012-03-26 06:51:15 51°14.302 2°55.253 14.518 0.041579 0.214439 -2.458615
2012-03-26 06:51:21 51°14.316 2°55.239 14.5233 0.045075 0.232775 -2.458615
2012-03-26 06:51:26 51°14.329 2°55.227 14.5237 0.043224 0.223065 -2.458615
2012-03-26 06:51:31 51°14.341 2°55.214 14.5198 0.042607 0.219828 -2.458615
2012-03-26 06:51:35 51°14.352 2°55.204 14.5209 0.04199 0.216598 -2.458615
2012-03-26 06:51:41 51°14.367 2°55.189 14.5162 0.044458 0.229539 -2.458615
2012-03-26 06:51:46 51°14.38 2°55.177 14.5246 0.044458 0.229539 -2.458615
2012-03-26 06:51:51 51°14.393 2°55.165 14.5256 0.045486 0.23496 -2.458615
2012-03-26 06:51:55 51°14.404 2°55.155 14.5196 0.043738 0.225783 -2.458615
2012-03-26 06:52:01 51°14.42 2°55.14 14.5179 0.044355 0.229017 -2.458615
2012-03-26 06:52:06 51°14.434 2°55.128 14.5251 0.050421 0.261012 -2.458615
2012-03-26 06:52:11 51°14.448 2°55.116 14.5233 0.049804 0.257759 -2.458615
2012-03-26 06:52:15 51°14.458 2°55.105 14.5269 0.049804 0.257759 -2.458615
2012-03-26 06:52:20 51°14.472 2°55.093 14.5309 0.047542 0.245817 -2.458615
2012-03-26 06:52:26 51°14.489 2°55.077 14.5255 0.043121 0.222558 -2.458615
2012-03-26 06:52:31 51°14.503 2°55.064 14.5289 0.042504 0.219311 -2.458615
2012-03-26 06:52:35 51°14.514 2°55.052 14.5301 0.040654 0.209617 -2.458615
2012-03-26 06:52:40 51°14.529 2°55.038 14.5262 0.038597 0.198877 -2.458615
2012-03-26 06:52:45 51°14.542 2°55.022 14.5232 0.038597 0.198877 -2.458615
2012-03-26 06:52:50 51°14.556 2°55.005 14.5331 0.039934 0.205845 -2.458615
2012-03-26 06:52:55 51°14.57 2°54.987 14.5185 0.036336 0.187091 -2.458615
2012-03-26 06:52:59 51°14.58 2°54.972 14.5143 0.043635 0.225207 -2.458615
2012-03-26 06:53:04 51°14.594 2°54.953 14.5191 0.044458 0.229553 -2.458615
2012-03-26 06:53:09 51°14.607 2°54.934 14.5215 0.049701 0.257208 -2.458615
2012-03-26 06:53:14 51°14.62 2°54.915 14.5338 0.049701 0.257208 -2.458615
2012-03-26 06:53:19 51°14.634 2°54.896 14.5233 0.039831 0.205351 -2.458615
2012-03-26 06:53:23 51°14.644 2°54.88 12.6733 0.05659 0.293733 -2.458615
2012-03-26 06:53:28 51°14.658 2°54.861 11.9692 0.656544 3.851825 -2.458615
2012-03-26 06:53:33 51°14.671 2°54.842 10.6965 0.231094 1.270994 -2.458615
2012-03-26 06:53:38 51°14.684 2°54.822 9.9645 4.013477 27.833466 -2.458615
2012-03-26 06:53:43 51°14.697 2°54.803 9.4604 4.013477 27.833466 -2.458615
2012-03-26 06:53:48 51°14.71 2°54.783 9.1705 3.811144 27.44855 -2.458615
2012-03-26 06:53:53 51°14.723 2°54.763 8.8774 3.778651 29.055103 -2.458615
2012-03-26 06:53:58 51°14.735 2°54.743 8.7585 3.766244 30.353232 -2.458615
2012-03-26 06:54:03 51°14.748 2°54.723 8.7812 3.885596 32.024703 -2.458615
2012-03-26 06:54:07 51°14.759 2°54.708 8.6148 3.791853 32.124306 -2.458615
2012-03-26 06:54:12 51°14.772 2°54.688 8.5299 3.791853 32.124306 -2.458615
2012-03-26 06:54:17 51°14.785 2°54.67 8.4157 3.651627 31.830912 -2.458615
2012-03-26 06:54:22 51°14.799 2°54.651 8.3982 3.52862 31.19119 -2.458615
2012-03-26 06:54:27 51°14.812 2°54.632 8.4046 3.448395 31.026514 -2.458615
2012-03-26 06:54:32 51°14.826 2°54.614 8.3873 3.391571 30.756717 -2.458615
2012-03-26 06:54:37 51°14.84 2°54.597 8.3209 3.34386 30.525277 -2.458615
2012-03-26 06:54:42 51°14.854 2°54.581 8.3174 3.34386 30.525277 -2.458615
2012-03-26 06:54:47 51°14.869 2°54.565 8.2372 3.306915 30.348873 -2.458615
2012-03-26 06:54:52 51°14.883 2°54.549 8.2379 3.277631 30.220085 -2.458615
2012-03-26 06:54:57 51°14.898 2°54.534 8.2299 3.255281 30.12234 -2.458615
2012-03-26 06:55:03 51°14.915 2°54.514 8.2132 3.241313 30.061062 -2.458615
2012-03-26 06:55:07 51°14.926 2°54.501 8.2471 3.23138 30.02496 -2.458615
2012-03-26 06:55:12 51°14.941 2°54.485 8.1816 3.23138 30.02496 -2.458615
2012-03-26 06:55:17 51°14.955 2°54.468 8.129 3.21793 29.940235 -2.458615
2012-03-26 06:55:23 51°14.971 2°54.448 8.1396 3.210274 29.928112 -2.458615
2012-03-26 06:55:27 51°14.982 2°54.434 8.1091 3.200859 29.876259 -2.458615
2012-03-26 06:55:32 51°14.996 2°54.418 8.0956 3.197859 29.892181 -2.458615
2012-03-26 06:55:37 51°15.011 2°54.402 8.0738 3.192893 29.858513 -2.458615
2012-03-26 06:55:42 51°15.025 2°54.386 8.1177 3.192893 29.858513 -2.458615
2012-03-26 06:55:47 51°15.038 2°54.368 8.0951 3.190099 29.84731 -2.458615
2012-03-26 06:55:52 51°15.052 2°54.351 8.0499 3.188237 29.855767 -2.458615
2012-03-26 06:55:57 51°15.066 2°54.334 8.1001 3.184409 29.846173 -2.458615
2012-03-26 06:56:02 51°15.08 2°54.317 8.0411 3.1841 29.880821 -2.458615
2012-03-26 06:56:07 51°15.094 2°54.301 8.0442 3.182858 29.88728 -2.458615
2012-03-26 06:56:12 51°15.108 2°54.284 8.0285 3.182858 29.88728 -2.458615
2012-03-26 06:56:17 51°15.122 2°54.269 8.0341 3.179962 29.881965 -2.458615
2012-03-26 06:56:22 51°15.137 2°54.253 8.0556 3.177686 29.868373 -2.458615
2012-03-26 06:56:27 51°15.152 2°54.238 8.0172 3.177375 29.880653 -2.458615
2012-03-26 06:56:32 51°15.166 2°54.222 7.972 3.175824 29.876917 -2.458615
2012-03-26 06:56:37 51°15.18 2°54.205 8.0085 3.173858 29.870425 -2.458615
2012-03-26 06:56:42 51°15.194 2°54.189 8.0142 3.173858 29.870425 -2.458615
2012-03-26 06:56:47 51°15.209 2°54.173 8.0024 3.172203 29.867938 -2.458615
2012-03-26 06:56:52 51°15.223 2°54.157 8.0081 3.171065 29.866956 -2.458615
2012-03-26 06:56:57 51°15.237 2°54.141 7.9846 3.16972 29.856825 -2.458615
2012-03-26 06:57:02 51°15.251 2°54.125 7.9862 3.17003 29.874828 -2.458615
2012-03-26 06:57:07 51°15.266 2°54.108 7.9688 3.169513 29.886552 -2.458615
2012-03-26 06:57:12 51°15.28 2°54.092 7.9804 3.169513 29.886552 -2.458615
2012-03-26 06:57:17 51°15.294 2°54.075 7.9586 3.170341 29.892071 -2.458615
2012-03-26 06:57:22 51°15.309 2°54.06 7.9427 3.171997 29.921809 -2.458615
2012-03-26 06:57:27 51°15.323 2°54.043 7.9668 3.173238 29.942569 -2.458615
2012-03-26 06:57:32 51°15.337 2°54.026 7.9806 3.174687 29.962378 -2.458615
2012-03-26 06:57:37 51°15.351 2°54.01 8.0017 3.174583 29.970674 -2.458615
2012-03-26 06:57:42 51°15.365 2°53.994 7.9966 3.174583 29.970674 -2.458615
2012-03-26 06:57:47 51°15.38 2°53.978 7.9398 3.17417 29.971041 -2.458615
2012-03-26 06:57:52 51°15.395 2°53.963 7.9542 3.174066 29.977779 -2.458615
2012-03-26 06:57:57 51°15.41 2°53.948 7.9612 3.176446 30.016744 -2.458615
2012-03-26 06:58:03 51°15.427 2°53.929 7.9486 3.177688 30.031294 -2.458615
2012-03-26 06:58:07 51°15.439 2°53.917 7.9417 3.178308 30.035433 -2.458615
2012-03-26 06:58:12 51°15.454 2°53.902 7.9183 3.178308 30.035433 -2.458615
2012-03-26 06:58:17 51°15.468 2°53.887 7.9173 3.179757 30.042736 -2.458615
2012-03-26 06:58:22 51°15.483 2°53.871 7.8989 3.180481 30.061291 -2.458615
2012-03-26 06:58:27 51°15.497 2°53.856 7.9052 3.180171 30.068251 -2.458615
2012-03-26 06:58:32 51°15.512 2°53.84 7.9141 3.180171 30.070607 -2.458615
2012-03-26 06:58:37 51°15.526 2°53.823 7.9063 3.179136 30.067636 -2.458615
2012-03-26 06:58:42 51°15.541 2°53.807 7.9288 3.179136 30.067636 -2.458615
2012-03-26 06:58:47 51°15.555 2°53.791 7.8994 3.17924 30.072647 -2.458615
2012-03-26 06:58:52 51°15.57 2°53.775 7.9133 3.17893 30.083549 -2.458615
2012-03-26 06:58:57 51°15.585 2°53.76 7.9029 3.178516 30.087082 -2.458615
2012-03-26 06:59:02 51°15.599 2°53.744 7.9046 3.177792 30.086579 -2.458615
2012-03-26 06:59:07 51°15.614 2°53.728 7.9024 3.177378 30.085391 -2.458615
2012-03-26 06:59:12 51°15.628 2°53.711 7.9174 3.177378 30.085391 -2.458615
2012-03-26 06:59:17 51°15.643 2°53.696 7.8953 3.177895 30.094748 -2.458615
2012-03-26 06:59:23 51°15.66 2°53.677 7.9052 3.177274 30.089031 -2.458615
2012-03-26 06:59:27 51°15.672 2°53.665 7.8795 3.177688 30.096518 -2.458615
2012-03-26 06:59:32 51°15.687 2°53.649 7.8794 3.177585 30.098584 -2.458615
2012-03-26 06:59:37 51°15.701 2°53.632 7.893 3.177068 30.094738 -2.458615
2012-03-26 06:59:42 51°15.716 2°53.616 7.8755 3.177068 30.094738 -2.458615
2012-03-26 06:59:47 51°15.73 2°53.599 7.8755 3.177068 30.096313 -2.458615
2012-03-26 06:59:52 51°15.744 2°53.582 7.8626 3.176757 30.09306 -2.458615
2012-03-26 06:59:57 51°15.759 2°53.565 7.8752 3.176343 30.092661 -2.458615
2012-03-26 07:00:02 51°15.773 2°53.548 7.8668 3.175723 30.093244 -2.458615
2012-03-26 07:00:07 51°15.787 2°53.532 7.8568 3.174067 30.081403 -2.458615
2012-03-26 07:00:12 51°15.802 2°53.516 7.8651 3.174067 30.081403 -2.458615
2012-03-26 07:00:17 51°15.817 2°53.501 7.8659 3.172619 30.070153 -2.458615
2012-03-26 07:00:22 51°15.832 2°53.487 7.8347 3.171274 30.062349 -2.458615
2012-03-26 07:00:27 51°15.847 2°53.472 7.836 3.172205 30.074479 -2.458615
2012-03-26 07:00:32 51°15.863 2°53.457 7.8463 3.171171 30.069142 -2.458615
2012-03-26 07:00:37 51°15.878 2°53.444 7.8336 3.17024 30.064102 -2.458615
2012-03-26 07:00:42 51°15.894 2°53.43 7.8229 3.17024 30.064102 -2.458615
2012-03-26 07:00:47 51°15.909 2°53.417 7.8296 3.169412 30.057782 -2.458615
2012-03-26 07:00:52 51°15.925 2°53.403 7.8417 3.169205 30.058763 -2.458615
2012-03-26 07:00:57 51°15.94 2°53.389 7.8404 3.168688 30.060428 -2.458615
2012-03-26 07:01:02 51°15.955 2°53.375 7.8443 3.168171 30.062883 -2.458615
2012-03-26 07:01:07 51°15.97 2°53.361 7.8406 3.167653 30.060606 -2.458615
2012-03-26 07:01:12 51°15.986 2°53.347 7.8171 3.167653 30.060606 -2.458615
2012-03-26 07:01:17 51°16.001 2°53.334 7.8199 3.16755 30.063464 -2.458615
2012-03-26 07:01:22 51°16.017 2°53.319 7.8213 3.166826 30.059015 -2.458615
2012-03-26 07:01:27 51°16.032 2°53.305 7.8223 3.167447 30.067112 -2.458615
2012-03-26 07:01:32 51°16.047 2°53.291 7.8156 3.167964 30.072545 -2.458615
2012-03-26 07:01:37 51°16.062 2°53.277 7.8055 3.168895 30.083114 -2.458615
2012-03-26 07:01:42 51°16.077 2°53.262 7.811 3.168895 30.083114 -2.458615
2012-03-26 07:01:47 51°16.093 2°53.248 7.7846 3.169412 30.088547 -2.458615
2012-03-26 07:01:52 51°16.108 2°53.234 7.7825 3.16993 30.101091 -2.458615
2012-03-26 07:01:57 51°16.123 2°53.219 7.7759 3.16993 30.104252 -2.458615
2012-03-26 07:02:03 51°16.142 2°53.201 7.7608 3.170033 30.108501 -2.458615
2012-03-26 07:02:07 51°16.153 2°53.189 7.7585 3.16993 30.112159 -2.458615
2012-03-26 07:02:12 51°16.169 2°53.175 7.7439 3.16993 30.112159 -2.458615
2012-03-26 07:02:17 51°16.184 2°53.16 7.7475 3.170033 30.117992 -2.458615
2012-03-26 07:02:22 51°16.199 2°53.145 7.7448 3.169827 30.12373 -2.458615
2012-03-26 07:02:27 51°16.214 2°53.129 7.7378 3.16993 30.131152 -2.458615
2012-03-26 07:02:32 51°16.229 2°53.114 7.7276 3.16962 30.134224 -2.458615
2012-03-26 07:02:37 51°16.244 2°53.098 7.7301 3.169723 30.1472 -2.458615
2012-03-26 07:02:42 51°16.258 2°53.082 7.7046 3.169723 30.1472 -2.458615
2012-03-26 07:02:47 51°16.273 2°53.066 7.7169 3.168792 30.144537 -2.458615
2012-03-26 07:02:52 51°16.288 2°53.049 7.7218 3.168689 30.15138 -2.458615
2012-03-26 07:02:57 51°16.303 2°53.033 7.7105 3.167241 30.142477 -2.458615
2012-03-26 07:03:02 51°16.317 2°53.017 7.7083 3.166413 30.141696 -2.458615
2012-03-26 07:03:07 51°16.332 2°53.002 7.7149 3.165689 30.138036 -2.458615
2012-03-26 07:03:12 51°16.347 2°52.986 7.6975 3.165689 30.138036 -2.458615
2012-03-26 07:03:17 51°16.362 2°52.971 7.6924 3.165586 30.143296 -2.458615
2012-03-26 07:03:22 51°16.377 2°52.956 7.6753 3.164551 30.140336 -2.458615
2012-03-26 07:03:27 51°16.393 2°52.942 7.6795 3.164241 30.139447 -2.458615
2012-03-26 07:03:32 51°16.408 2°52.928 7.6899 3.164551 30.145101 -2.458615
2012-03-26 07:03:37 51°16.424 2°52.915 7.674 3.164551 30.145895 -2.458615
2012-03-26 07:03:42 51°16.439 2°52.901 7.6707 3.164551 30.145895 -2.458615
2012-03-26 07:03:47 51°16.455 2°52.889 7.6728 3.164241 30.145802 -2.458615
2012-03-26 07:03:52 51°16.471 2°52.876 7.6691 3.164448 30.153545 -2.458615
2012-03-26 07:03:57 51°16.487 2°52.864 7.6599 3.164344 30.162791 -2.458615
2012-03-26 07:04:02 51°16.503 2°52.851 7.6501 3.165689 30.180955 -2.458615
2012-03-26 07:04:07 51°16.519 2°52.839 7.6385 3.16631 30.188299 -2.458615
2012-03-26 07:04:12 51°16.535 2°52.827 7.6489 3.16631 30.188299 -2.458615
2012-03-26 07:04:17 51°16.551 2°52.816 7.6228 3.167552 30.206176 -2.458615
2012-03-26 07:04:22 51°16.567 2°52.803 7.6174 3.169414 30.23061 -2.458615
2012-03-26 07:04:27 51°16.582 2°52.79 7.6253 3.170759 30.249594 -2.458615
2012-03-26 07:04:32 51°16.597 2°52.776 7.6189 3.172518 30.273753 -2.458615
2012-03-26 07:04:37 51°16.612 2°52.762 7.6148 3.17407 30.298937 -2.458615
2012-03-26 07:04:42 51°16.628 2°52.747 7.6163 3.17407 30.298937 -2.458615
2012-03-26 07:04:47 51°16.643 2°52.734 7.5981 3.175105 30.31707 -2.458615
2012-03-26 07:04:52 51°16.659 2°52.72 7.6034 3.176139 30.335212 -2.458615
2012-03-26 07:04:57 51°16.674 2°52.708 7.6005 3.176864 30.350884 -2.458615
2012-03-26 07:05:02 51°16.69 2°52.697 7.6002 3.177278 30.360073 -2.458615
2012-03-26 07:05:07 51°16.707 2°52.687 7.6058 3.181623 30.410848 -2.458615
2012-03-26 07:05:12 51°16.723 2°52.677 7.595 3.181623 30.410848 -2.458615
2012-03-26 07:05:17 51°16.739 2°52.669 7.577 3.183175 30.428873 -2.458615
2012-03-26 07:05:22 51°16.756 2°52.662 7.583 3.183796 30.437854 -2.458615
2012-03-26 07:05:27 51°16.772 2°52.657 7.5767 3.183796 30.445099 -2.458615
2012-03-26 07:05:32 51°16.789 2°52.652 7.5694 3.184003 30.45051 -2.458615
2012-03-26 07:05:37 51°16.805 2°52.647 7.561 3.183796 30.449125 -2.458615
2012-03-26 07:05:42 51°16.822 2°52.642 7.5606 3.183796 30.449125 -2.458615
2012-03-26 07:05:47 51°16.839 2°52.638 7.5724 3.183382 30.448772 -2.458615
2012-03-26 07:05:52 51°16.856 2°52.635 7.561 3.183796 30.458793 -2.458615
2012-03-26 07:05:57 51°16.872 2°52.633 7.5584 3.185555 30.483868 -2.458615
2012-03-26 07:06:02 51°16.889 2°52.632 7.5541 3.186279 30.495574 -2.458615
2012-03-26 07:06:07 51°16.906 2°52.63 7.5611 3.187625 30.516284 -2.458615
2012-03-26 07:06:12 51°16.923 2°52.629 7.5499 3.187625 30.516284 -2.458615
2012-03-26 07:06:17 51°16.94 2°52.629 7.5374 3.188349 30.529615 -2.458615
2012-03-26 07:06:22 51°16.956 2°52.628 7.5378 3.189694 30.545488 -2.458615
2012-03-26 07:06:27 51°16.974 2°52.628 7.54 3.190418 30.555592 -2.458615
2012-03-26 07:06:32 51°16.991 2°52.627 7.5443 3.191039 30.56541 -2.458615
2012-03-26 07:06:37 51°17.007 2°52.626 7.5242 3.191867 30.575805 -2.458615
2012-03-26 07:06:42 51°17.024 2°52.626 7.5208 3.191867 30.575805 -2.458615
2012-03-26 07:06:47 51°17.041 2°52.624 7.5249 3.192384 30.582911 -2.458615
2012-03-26 07:06:52 51°17.057 2°52.623 7.5176 3.193212 30.598172 -2.458615
2012-03-26 07:06:57 51°17.074 2°52.622 7.5094 3.194143 30.612916 -2.458615
2012-03-26 07:07:03 51°17.094 2°52.62 7.5211 3.194867 30.623846 -2.458615
2012-03-26 07:07:07 51°17.108 2°52.619 7.5079 3.195695 30.635876 -2.458615
2012-03-26 07:07:12 51°17.124 2°52.617 7.5058 3.195695 30.635876 -2.458615
2012-03-26 07:07:17 51°17.141 2°52.616 7.5002 3.196626 30.653883 -2.458615
2012-03-26 07:07:22 51°17.158 2°52.615 7.5076 3.197247 30.662912 -2.458615
2012-03-26 07:07:27 51°17.174 2°52.616 7.4943 3.197868 30.67357 -2.458615
2012-03-26 07:07:32 51°17.191 2°52.616 7.4924 3.198903 30.687811 -2.458615
2012-03-26 07:07:37 51°17.208 2°52.617 7.4815 3.199731 30.699044 -2.458615
2012-03-26 07:07:42 51°17.224 2°52.618 7.4772 3.199731 30.699044 -2.458615
2012-03-26 07:07:47 51°17.241 2°52.619 7.4827 3.200662 30.713823 -2.458615
2012-03-26 07:07:52 51°17.258 2°52.62 7.4684 3.201179 30.723394 -2.458615
2012-03-26 07:07:57 51°17.274 2°52.62 7.4703 3.20211 30.734919 -2.458615
2012-03-26 07:08:02 51°17.291 2°52.62 7.4718 3.203249 30.751909 -2.458615
2012-03-26 07:08:07 51°17.307 2°52.62 7.4685 3.204283 30.768622 -2.458615
2012-03-26 07:08:12 51°17.324 2°52.62 7.4685 3.204283 30.768622 -2.458615
2012-03-26 07:08:17 51°17.341 2°52.619 7.4832 3.204904 30.780942 -2.458615
2012-03-26 07:08:22 51°17.357 2°52.618 7.4764 3.206042 30.797133 -2.458615
2012-03-26 07:08:27 51°17.374 2°52.617 7.4657 3.206249 30.804242 -2.458615
2012-03-26 07:08:32 51°17.391 2°52.615 7.4641 3.208112 30.828147 -2.458615
2012-03-26 07:08:37 51°17.407 2°52.614 7.4686 3.209043 30.840512 -2.458615
2012-03-26 07:08:42 51°17.424 2°52.613 7.4692 3.209043 30.840512 -2.458615
2012-03-26 07:08:47 51°17.44 2°52.612 7.4618 3.210285 30.856182 -2.458615
2012-03-26 07:08:52 51°17.457 2°52.611 7.4611 3.21132 30.866372 -2.458615
2012-03-26 07:08:57 51°17.474 2°52.61 7.4703 3.212044 30.870798 -2.458615
2012-03-26 07:09:02 51°17.49 2°52.609 7.4592 3.212665 30.881507 -2.458615
2012-03-26 07:09:07 51°17.507 2°52.608 7.4673 3.213389 30.890857 -2.458615
2012-03-26 07:09:12 51°17.523 2°52.607 7.4592 3.213389 30.890857 -2.458615
2012-03-26 07:09:17 51°17.54 2°52.607 7.4609 3.21401 30.900749 -2.458615
2012-03-26 07:09:23 51°17.559 2°52.606 7.4564 3.213699 30.898266 -2.458615
2012-03-26 07:09:27 51°17.573 2°52.606 7.4651 3.214631 30.910644 -2.458615
2012-03-26 07:09:32 51°17.589 2°52.608 7.4635 3.214734 30.910924 -2.458615
2012-03-26 07:09:37 51°17.606 2°52.611 7.4574 3.214838 30.912847 -2.458615
2012-03-26 07:09:42 51°17.622 2°52.614 7.4739 3.214838 30.912847 -2.458615
2012-03-26 07:09:47 51°17.638 2°52.617 7.4586 3.214838 30.913669 -2.458615
2012-03-26 07:09:52 51°17.654 2°52.622 7.4676 3.214734 30.914211 -2.458615
2012-03-26 07:09:57 51°17.67 2°52.626 7.4643 3.215045 30.918338 -2.458615
2012-03-26 07:10:02 51°17.686 2°52.632 7.4551 3.215045 30.917516 -2.458615
2012-03-26 07:10:07 51°17.701 2°52.638 7.4508 3.214734 30.914211 -2.458615
2012-03-26 07:10:12 51°17.717 2°52.644 7.4525 3.214734 30.914211 -2.458615
2012-03-26 07:10:17 51°17.732 2°52.651 7.4427 3.214631 30.912287 -2.458615
2012-03-26 07:10:22 51°17.748 2°52.658 7.4499 3.214217 30.908703 -2.458615
2012-03-26 07:10:27 51°17.763 2°52.664 7.4403 3.213492 30.900992 -2.458615
2012-03-26 07:10:32 51°17.779 2°52.67 7.4478 3.212975 30.896305 -2.458615
2012-03-26 07:10:37 51°17.795 2°52.676 7.4442 3.212354 30.892981 -2.458615
2012-03-26 07:10:42 51°17.811 2°52.681 7.4392 3.212354 30.892981 -2.458615
2012-03-26 07:10:47 51°17.826 2°52.686 7.4398 3.212458 30.897369 -2.458615
2012-03-26 07:10:52 51°17.843 2°52.691 7.4358 3.21163 30.89184 -2.458615
2012-03-26 07:10:57 51°17.859 2°52.695 7.4474 3.211009 30.886872 -2.458615
2012-03-26 07:11:02 51°17.875 2°52.7 7.4386 3.210596 30.886572 -2.458615
2012-03-26 07:11:07 51°17.891 2°52.704 7.4396 3.209768 30.879398 -2.458615
2012-03-26 07:11:12 51°17.907 2°52.707 7.4389 3.209768 30.879398 -2.458615
2012-03-26 07:11:17 51°17.923 2°52.711 7.4403 3.209354 30.875812 -2.458615
2012-03-26 07:11:22 51°17.939 2°52.714 7.4391 3.208216 30.866153 -2.458615
2012-03-26 07:11:27 51°17.955 2°52.717 7.4383 3.207181 30.856774 -2.458615
2012-03-26 07:11:32 51°17.972 2°52.72 7.4431 3.20625 30.847677 -2.458615
2012-03-26 07:11:37 51°17.988 2°52.722 7.4379 3.204594 30.830045 -2.458615
2012-03-26 07:11:43 51°18.007 2°52.727 7.4409 3.204594 30.830045 -2.458615
2012-03-26 07:11:47 51°18.021 2°52.73 7.4469 3.20356 30.819845 -2.458615
2012-03-26 07:11:52 51°18.036 2°52.734 7.4481 3.202939 30.813234 -2.458615
2012-03-26 07:11:57 51°18.052 2°52.74 7.45 3.201387 30.797525 -2.458615
2012-03-26 07:12:02 51°18.067 2°52.747 7.4462 3.20087 30.792016 -2.458615
2012-03-26 07:12:07 51°18.083 2°52.756 7.4496 3.199835 30.780179 -2.458615
2012-03-26 07:12:12 51°18.097 2°52.767 7.45 3.199835 30.780179 -2.458615
2012-03-26 07:12:17 51°18.111 2°52.778 7.4526 3.199318 30.773852 -2.458615
2012-03-26 07:12:22 51°18.125 2°52.791 7.4525 3.198697 30.766423 -2.458615
2012-03-26 07:12:27 51°18.138 2°52.806 7.4517 3.198076 30.757359 -2.458615
2012-03-26 07:12:32 51°18.15 2°52.821 7.4531 3.198076 30.755722 -2.458615
2012-03-26 07:12:37 51°18.162 2°52.837 7.457 3.197041 30.744708 -2.458615
2012-03-26 07:12:42 51°18.173 2°52.854 7.4564 3.197041 30.744708 -2.458615
2012-03-26 07:12:47 51°18.183 2°52.872 7.4582 3.196731 30.740587 -2.458615
2012-03-26 07:12:52 51°18.194 2°52.89 7.4577 3.195386 30.725452 -2.458615
2012-03-26 07:12:57 51°18.204 2°52.91 7.4558 3.194765 30.718028 -2.458615
2012-03-26 07:13:02 51°18.214 2°52.929 7.4579 3.193627 30.705099 -2.458615
2012-03-26 07:13:07 51°18.224 2°52.949 7.458 3.192385 30.691886 -2.458615
2012-03-26 07:13:12 51°18.234 2°52.968 7.46 3.192385 30.691886 -2.458615
2012-03-26 07:13:17 51°18.243 2°52.987 7.4614 3.191454 30.681161 -2.458615
2012-03-26 07:13:22 51°18.253 2°53.006 7.4574 3.19073 30.672639 -2.458615
2012-03-26 07:13:27 51°18.263 2°53.025 7.4536 3.189488 30.658614 -2.458615
2012-03-26 07:13:32 51°18.273 2°53.044 7.4551 3.18835 30.646506 -2.458615
2012-03-26 07:13:37 51°18.283 2°53.063 7.4536 3.187212 30.632769 -2.458615
2012-03-26 07:13:42 51°18.293 2°53.082 7.4576 3.187212 30.632769 -2.458615
2012-03-26 07:13:47 51°18.303 2°53.101 7.4563 3.186074 30.622291 -2.458615
2012-03-26 07:13:52 51°18.313 2°53.12 7.4616 3.185143 30.612386 -2.458615
2012-03-26 07:13:57 51°18.324 2°53.139 7.459 3.184315 30.602768 -2.458615
2012-03-26 07:14:02 51°18.334 2°53.158 7.458 3.183281 30.594205 -2.458615
2012-03-26 07:14:07 51°18.344 2°53.178 7.4573 3.182349 30.584301 -2.458615
2012-03-26 07:14:12 51°18.354 2°53.197 7.4622 3.182349 30.584301 -2.458615
2012-03-26 07:14:17 51°18.363 2°53.216 7.4633 3.181522 30.57631 -2.458615
2012-03-26 07:14:22 51°18.373 2°53.235 7.4728 3.180797 30.567795 -2.458615
2012-03-26 07:14:27 51°18.382 2°53.255 7.4647 3.180073 30.560092 -2.458615
2012-03-26 07:14:32 51°18.391 2°53.275 7.4662 3.179556 30.553778 -2.458615
2012-03-26 07:14:37 51°18.4 2°53.295 7.4685 3.179245 30.550477 -2.458615
2012-03-26 07:14:43 51°18.411 2°53.32 7.4651 3.179245 30.550477 -2.458615
2012-03-26 07:14:47 51°18.418 2°53.337 7.4627 3.178625 30.543064 -2.458615
2012-03-26 07:14:52 51°18.426 2°53.358 7.4624 3.178314 30.538951 -2.458615
2012-03-26 07:14:57 51°18.435 2°53.379 7.4637 3.178418 30.536803 -2.458615
2012-03-26 07:15:02 51°18.443 2°53.4 7.4665 3.178211 30.533791 -2.458615
2012-03-26 07:15:07 51°18.451 2°53.421 7.4632 3.177383 30.52418 -2.458615
2012-03-26 07:15:12 51°18.459 2°53.441 7.4651 3.177383 30.52418 -2.458615
2012-03-26 07:15:17 51°18.469 2°53.462 7.4651 3.177176 30.52198 -2.458615
2012-03-26 07:15:22 51°18.477 2°53.481 7.4629 3.177073 30.521691 -2.458615
2012-03-26 07:15:27 51°18.487 2°53.502 7.4659 3.176245 30.512892 -2.458615
2012-03-26 07:15:32 51°18.497 2°53.521 7.4673 3.176038 30.510692 -2.458615
2012-03-26 07:15:37 51°18.506 2°53.54 7.4657 3.175624 30.507104 -2.458615
2012-03-26 07:15:43 51°18.518 2°53.564 7.4636 3.175624 30.507104 -2.458615
2012-03-26 07:15:47 51°18.526 2°53.579 7.4627 3.175003 30.500505 -2.458615
2012-03-26 07:15:52 51°18.536 2°53.599 7.468 3.174693 30.498827 -2.458615
2012-03-26 07:15:57 51°18.545 2°53.619 7.4662 3.174072 30.491417 -2.458615
2012-03-26 07:16:02 51°18.554 2°53.64 7.4689 3.173452 30.484818 -2.458615
2012-03-26 07:16:07 51°18.563 2°53.661 7.4691 3.173348 30.482908 -2.458615
2012-03-26 07:16:12 51°18.57 2°53.682 7.4696 3.173348 30.482908 -2.458615
2012-03-26 07:16:17 51°18.578 2°53.703 7.4749 3.172831 30.477409 -2.458615
2012-03-26 07:16:22 51°18.586 2°53.725 7.4751 3.172624 30.47602 -2.458615
2012-03-26 07:16:27 51°18.594 2°53.747 7.4718 3.172003 30.468612 -2.458615
2012-03-26 07:16:32 51°18.602 2°53.769 7.4708 3.1719 30.466702 -2.458615
2012-03-26 07:16:37 51°18.61 2°53.79 7.4728 3.1719 30.465892 -2.458615
2012-03-26 07:16:42 51°18.617 2°53.813 7.4686 3.1719 30.465892 -2.458615
2012-03-26 07:16:47 51°18.624 2°53.834 7.4702 3.172003 30.465372 -2.458615
2012-03-26 07:16:52 51°18.632 2°53.856 7.4666 3.171589 30.460973 -2.458615
2012-03-26 07:16:57 51°18.64 2°53.878 7.4697 3.171693 30.460453 -2.458615
2012-03-26 07:17:02 51°18.648 2°53.899 7.4682 3.171279 30.456055 -2.458615
2012-03-26 07:17:07 51°18.656 2°53.921 7.4686 3.171279 30.456055 -2.458615
2012-03-26 07:17:12 51°18.664 2°53.941 7.4686 3.171279 30.456055 -2.458615
2012-03-26 07:17:17 51°18.673 2°53.962 7.4656 3.171175 30.455765 -2.458615
2012-03-26 07:17:22 51°18.683 2°53.982 7.4654 3.170865 30.453277 -2.458615
2012-03-26 07:17:27 51°18.692 2°54.002 7.4688 3.170451 30.448879 -2.458615
2012-03-26 07:17:32 51°18.702 2°54.021 7.4652 3.169934 30.444191 -2.458615
2012-03-26 07:17:37 51°18.711 2°54.041 7.468 3.169727 30.442801 -2.458615
2012-03-26 07:17:42 51°18.72 2°54.061 7.4667 3.169727 30.442801 -2.458615
2012-03-26 07:17:47 51°18.729 2°54.082 7.4706 3.169106 30.437823 -2.458615
2012-03-26 07:17:52 51°18.738 2°54.102 7.467 3.169003 30.435914 -2.458615
2012-03-26 07:17:57 51°18.746 2°54.123 7.4695 3.168485 30.432035 -2.458615
2012-03-26 07:18:02 51°18.755 2°54.144 7.4693 3.168382 30.430935 -2.458615
2012-03-26 07:18:07 51°18.763 2°54.165 7.4702 3.168279 30.429836 -2.458615
2012-03-26 07:18:12 51°18.77 2°54.186 7.4711 3.168279 30.429836 -2.458615
2012-03-26 07:18:17 51°18.778 2°54.209 7.4688 3.168382 30.430935 -2.458615
2012-03-26 07:18:22 51°18.785 2°54.231 7.4759 3.168382 30.430126 -2.458615
2012-03-26 07:18:27 51°18.792 2°54.253 7.4856 3.168279 30.428217 -2.458615
2012-03-26 07:18:32 51°18.798 2°54.276 7.4713 3.168278 30.4266 -2.458615
2012-03-26 07:18:37 51°18.804 2°54.298 7.4692 3.168072 30.424401 -2.458615
2012-03-26 07:18:42 51°18.811 2°54.321 7.4688 3.168072 30.424401 -2.458615
2012-03-26 07:18:47 51°18.817 2°54.344 7.4674 3.167761 30.420294 -2.458615
2012-03-26 07:18:52 51°18.823 2°54.366 7.4701 3.167761 30.420294 -2.458615
2012-03-26 07:18:57 51°18.829 2°54.389 7.4656 3.167244 30.41318 -2.458615
2012-03-26 07:19:02 51°18.836 2°54.412 7.4667 3.167037 30.409365 -2.458615
2012-03-26 07:19:07 51°18.842 2°54.434 7.4683 3.167037 30.410982 -2.458615
2012-03-26 07:19:12 51°18.849 2°54.457 7.4672 3.167037 30.410982 -2.458615
2012-03-26 07:19:17 51°18.855 2°54.479 7.4677 3.166623 30.407393 -2.458615
2012-03-26 07:19:22 51°18.862 2°54.502 7.467 3.166416 30.406003 -2.458615
2012-03-26 07:19:27 51°18.869 2°54.524 7.4648 3.166002 30.403222 -2.458615
2012-03-26 07:19:32 51°18.877 2°54.545 7.4683 3.165899 30.402931 -2.458615
2012-03-26 07:19:37 51°18.885 2°54.566 7.467 3.165589 30.40125 -2.458615
2012-03-26 07:19:42 51°18.894 2°54.587 7.4671 3.165589 30.40125 -2.458615
2012-03-26 07:19:47 51°18.903 2°54.607 7.4658 3.164761 30.392455 -2.458615
2012-03-26 07:19:52 51°18.912 2°54.628 7.467 3.164657 30.392164 -2.458615
2012-03-26 07:19:57 51°18.921 2°54.648 7.4665 3.164657 30.392972 -2.458615
2012-03-26 07:20:02 51°18.93 2°54.669 7.4694 3.164451 30.390773 -2.458615
2012-03-26 07:20:07 51°18.939 2°54.69 7.4705 3.164037 30.386376 -2.458615
2012-03-26 07:20:12 51°18.948 2°54.71 7.4737 3.164037 30.386376 -2.458615
2012-03-26 07:20:17 51°18.956 2°54.731 7.4726 3.163933 30.385277 -2.458615
2012-03-26 07:20:22 51°18.964 2°54.752 7.4703 3.163416 30.37978 -2.458615
2012-03-26 07:20:27 51°18.971 2°54.774 7.4707 3.163313 30.378681 -2.458615
2012-03-26 07:20:32 51°18.979 2°54.796 7.468 3.163106 30.376482 -2.458615
2012-03-26 07:20:37 51°18.986 2°54.818 7.4657 3.162795 30.371569 -2.458615
2012-03-26 07:20:43 51°18.993 2°54.845 7.474 3.162795 30.371569 -2.458615
2012-03-26 07:20:47 51°18.999 2°54.863 7.4735 3.162692 30.369662 -2.458615
2012-03-26 07:20:52 51°19.005 2°54.886 7.4673 3.162795 30.369147 -2.458615
2012-03-26 07:20:57 51°19.011 2°54.909 7.4652 3.162485 30.365042 -2.458615
2012-03-26 07:21:02 51°19.017 2°54.931 7.4643 3.161967 30.360354 -2.458615
2012-03-26 07:21:07 51°19.024 2°54.954 7.4664 3.161864 30.360062 -2.458615
2012-03-26 07:21:12 51°19.03 2°54.976 7.4641 3.161864 30.360062 -2.458615
2012-03-26 07:21:17 51°19.037 2°54.999 7.4635 3.161657 30.357863 -2.458615
2012-03-26 07:21:22 51°19.043 2°55.021 7.4627 3.16114 30.352368 -2.458615
2012-03-26 07:21:27 51°19.05 2°55.043 7.4628 3.160933 30.35017 -2.458615
2012-03-26 07:21:32 51°19.057 2°55.065 7.4592 3.160416 30.346288 -2.458615
2012-03-26 07:21:37 51°19.065 2°55.086 7.4586 3.159898 30.342406 -2.458615
2012-03-26 07:21:42 51°19.074 2°55.107 7.4649 3.159898 30.342406 -2.458615
2012-03-26 07:21:47 51°19.081 2°55.128 7.4599 3.159691 30.341015 -2.458615
2012-03-26 07:21:52 51°19.09 2°55.149 7.4622 3.159071 30.335227 -2.458615
2012-03-26 07:21:57 51°19.099 2°55.169 7.4627 3.158657 30.331637 -2.458615
2012-03-26 07:22:03 51°19.109 2°55.194 7.4626 3.158243 30.328047 -2.458615
2012-03-26 07:22:07 51°19.116 2°55.21 7.4627 3.157415 30.320866 -2.458615
2012-03-26 07:22:12 51°19.125 2°55.23 7.4669 3.157415 30.320866 -2.458615
2012-03-26 07:22:17 51°19.134 2°55.25 7.4636 3.157002 30.31647 -2.458615
2012-03-26 07:22:22 51°19.143 2°55.271 7.4646 3.156174 30.307677 -2.458615
2012-03-26 07:22:27 51°19.152 2°55.291 7.4666 3.155864 30.304379 -2.458615
2012-03-26 07:22:32 51°19.16 2°55.311 7.4698 3.155346 30.298884 -2.458615
2012-03-26 07:22:37 51°19.169 2°55.332 7.4663 3.155139 30.29588 -2.458615
2012-03-26 07:22:42 51°19.177 2°55.354 7.4691 3.155139 30.29588 -2.458615
2012-03-26 07:22:47 51°19.184 2°55.376 7.4697 3.154726 30.291484 -2.458615
2012-03-26 07:22:52 51°19.191 2°55.397 7.4681 3.154208 30.285184 -2.458615
2012-03-26 07:22:57 51°19.198 2°55.42 7.4684 3.153794 30.280788 -2.458615
2012-03-26 07:23:02 51°19.204 2°55.443 7.4715 3.153484 30.276686 -2.458615
2012-03-26 07:23:07 51°19.211 2°55.465 7.4687 3.15307 30.270681 -2.458615
2012-03-26 07:23:12 51°19.217 2°55.487 7.4722 3.15307 30.270681 -2.458615
2012-03-26 07:23:17 51°19.223 2°55.51 7.4696 3.152449 30.263283 -2.458615
2012-03-26 07:23:22 51°19.23 2°55.532 7.4698 3.152139 30.259987 -2.458615
2012-03-26 07:23:27 51°19.236 2°55.555 7.4782 3.151518 30.252591 -2.458615
2012-03-26 07:23:32 51°19.242 2°55.577 7.4678 3.151001 30.247098 -2.458615
2012-03-26 07:23:37 51°19.249 2°55.6 7.4674 3.150277 30.239407 -2.458615
2012-03-26 07:23:42 51°19.255 2°55.622 7.47 3.150277 30.239407 -2.458615
2012-03-26 07:23:47 51°19.262 2°55.644 7.4671 3.149656 30.232012 -2.458615
2012-03-26 07:23:52 51°19.269 2°55.666 7.4678 3.149449 30.229815 -2.458615
2012-03-26 07:23:57 51°19.277 2°55.688 7.4644 3.148828 30.222421 -2.458615
2012-03-26 07:24:02 51°19.285 2°55.709 7.4653 3.148311 30.216928 -2.458615
2012-03-26 07:24:07 51°19.293 2°55.73 7.4682 3.148001 30.214436 -2.458615
2012-03-26 07:24:12 51°19.302 2°55.75 7.4651 3.148001 30.214436 -2.458615
2012-03-26 07:24:17 51°19.311 2°55.771 7.4681 3.147587 30.210846 -2.458615
2012-03-26 07:24:22 51°19.319 2°55.791 7.4703 3.14707 30.206157 -2.458615
2012-03-26 07:24:27 51°19.327 2°55.813 7.4697 3.146863 30.204763 -2.458615
2012-03-26 07:24:32 51°19.335 2°55.834 7.47 3.146552 30.203074 -2.458615
2012-03-26 07:24:37 51°19.343 2°55.855 7.472 3.146552 30.203074 -2.458615
2012-03-26 07:24:43 51°19.351 2°55.881 7.4751 3.146552 30.203074 -2.458615
2012-03-26 07:24:47 51°19.357 2°55.899 7.4711 3.146242 30.199779 -2.458615
2012-03-26 07:24:52 51°19.363 2°55.921 7.4748 3.146346 30.200074 -2.458615
2012-03-26 07:24:57 51°19.37 2°55.944 7.4771 3.146449 30.199566 -2.458615
2012-03-26 07:25:02 51°19.377 2°55.966 7.4701 3.146346 30.197665 -2.458615
2012-03-26 07:25:07 51°19.383 2°55.989 7.4704 3.146139 30.195468 -2.458615
2012-03-26 07:25:12 51°19.39 2°56.011 7.4688 3.146139 30.195468 -2.458615
2012-03-26 07:25:17 51°19.396 2°56.033 7.469 3.146035 30.192765 -2.458615
2012-03-26 07:25:22 51°19.403 2°56.055 7.4692 3.145932 30.190864 -2.458615
2012-03-26 07:25:27 51°19.41 2°56.077 7.4641 3.145725 30.187864 -2.458615
2012-03-26 07:25:32 51°19.417 2°56.1 7.4619 3.145518 30.185668 -2.458615
2012-03-26 07:25:37 51°19.424 2°56.122 7.4603 3.145001 30.180979 -2.458615
2012-03-26 07:25:42 51°19.431 2°56.144 7.4603 3.145001 30.180979 -2.458615
2012-03-26 07:25:47 51°19.438 2°56.166 7.4587 3.144587 30.177389 -2.458615
2012-03-26 07:25:52 51°19.445 2°56.188 7.4586 3.14407 30.1727 -2.458615
2012-03-26 07:25:57 51°19.453 2°56.209 7.4571 3.143863 30.172108 -2.458615
2012-03-26 07:26:02 51°19.461 2°56.231 7.4618 3.143552 30.169615 -2.458615
2012-03-26 07:26:07 51°19.469 2°56.252 7.4569 3.143138 30.167629 -2.458615
2012-03-26 07:26:12 51°19.477 2°56.273 7.4574 3.143138 30.167629 -2.458615
2012-03-26 07:26:17 51°19.486 2°56.294 7.4557 3.142932 30.167036 -2.458615
2012-03-26 07:26:22 51°19.494 2°56.315 7.4568 3.142621 30.164543 -2.458615
2012-03-26 07:26:27 51°19.503 2°56.336 7.4585 3.142311 30.162853 -2.458615
2012-03-26 07:26:32 51°19.512 2°56.357 7.4619 3.142104 30.161458 -2.458615
2012-03-26 07:26:37 51°19.52 2°56.378 7.4608 3.141897 30.159261 -2.458615
2012-03-26 07:26:42 51°19.529 2°56.399 7.4605 3.141897 30.159261 -2.458615
2012-03-26 07:26:47 51°19.537 2°56.42 7.4662 3.14169 30.157064 -2.458615
2012-03-26 07:26:52 51°19.545 2°56.441 7.4664 3.14138 30.154571 -2.458615
2012-03-26 07:26:57 51°19.553 2°56.462 7.4631 3.140966 30.150979 -2.458615
2012-03-26 07:27:02 51°19.561 2°56.484 7.4681 3.140656 30.146882 -2.458615
2012-03-26 07:27:07 51°19.569 2°56.505 7.4645 3.140242 30.142488 -2.458615
2012-03-26 07:27:12 51°19.577 2°56.528 7.472 3.140242 30.142488 -2.458615
2012-03-26 07:27:17 51°19.584 2°56.55 7.4704 3.139828 30.136491 -2.458615
2012-03-26 07:27:23 51°19.592 2°56.576 7.4692 3.139414 30.131297 -2.458615
2012-03-26 07:27:27 51°19.598 2°56.594 7.4641 3.139104 30.127201 -2.458615
2012-03-26 07:27:32 51°19.605 2°56.617 7.4681 3.138586 30.120108 -2.458615
2012-03-26 07:27:37 51°19.611 2°56.639 7.4772 3.138276 30.116813 -2.458615
2012-03-26 07:27:42 51°19.618 2°56.662 7.4716 3.138276 30.116813 -2.458615
2012-03-26 07:27:47 51°19.625 2°56.684 7.469 3.137862 30.110819 -2.458615
2012-03-26 07:27:52 51°19.631 2°56.707 7.4735 3.137655 30.106222 -2.458615
2012-03-26 07:27:57 51°19.638 2°56.729 7.4718 3.137242 30.10263 -2.458615
2012-03-26 07:28:02 51°19.645 2°56.751 7.4771 3.136828 30.099039 -2.458615
2012-03-26 07:28:07 51°19.652 2°56.774 7.4785 3.13631 30.092749 -2.458615
2012-03-26 07:28:12 51°19.659 2°56.796 7.4733 3.13631 30.092749 -2.458615
2012-03-26 07:28:17 51°19.666 2°56.818 7.4753 3.136104 30.088953 -2.458615
2012-03-26 07:28:22 51°19.673 2°56.841 7.4708 3.13569 30.084562 -2.458615
2012-03-26 07:28:27 51°19.68 2°56.862 7.4701 3.135276 30.080171 -2.458615
2012-03-26 07:28:32 51°19.688 2°56.884 7.4715 3.134759 30.074682 -2.458615
2012-03-26 07:28:37 51°19.695 2°56.907 7.4711 3.134448 30.070589 -2.458615
2012-03-26 07:28:42 51°19.703 2°56.928 7.4723 3.134448 30.070589 -2.458615
2012-03-26 07:28:47 51°19.71 2°56.95 7.4699 3.134241 30.067595 -2.458615
2012-03-26 07:28:52 51°19.718 2°56.972 7.4679 3.133828 30.063204 -2.458615
2012-03-26 07:28:57 51°19.727 2°56.992 7.4721 3.133724 30.062106 -2.458615
2012-03-26 07:29:03 51°19.737 2°57.017 7.4726 3.133207 30.057417 -2.458615
2012-03-26 07:29:07 51°19.744 2°57.033 7.4752 3.132793 30.053027 -2.458615
2012-03-26 07:29:12 51°19.754 2°57.053 7.4732 3.132793 30.053027 -2.458615
2012-03-26 07:29:17 51°19.763 2°57.073 7.4731 3.132483 30.050533 -2.458615
2012-03-26 07:29:22 51°19.773 2°57.093 7.4724 3.132069 30.046941 -2.458615
2012-03-26 07:29:27 51°19.782 2°57.112 7.4759 3.131552 30.043051 -2.458615
2012-03-26 07:29:32 51°19.791 2°57.132 7.4823 3.131241 30.038959 -2.458615
2012-03-26 07:29:37 51°19.801 2°57.152 7.4744 3.130931 30.034867 -2.458615
2012-03-26 07:29:42 51°19.81 2°57.172 7.4744 3.130931 30.034867 -2.458615
2012-03-26 07:29:47 51°19.82 2°57.192 7.4713 3.130724 30.031874 -2.458615
2012-03-26 07:29:52 51°19.829 2°57.212 7.4717 3.130414 30.028581 -2.458615
2012-03-26 07:29:57 51°19.838 2°57.233 7.4749 3.13 30.023393 -2.458615
2012-03-26 07:30:02 51°19.847 2°57.252 7.4742 3.129793 30.0204 -2.458615
2012-03-26 07:30:07 51°19.855 2°57.274 7.481 3.129483 30.015512 -2.458615
2012-03-26 07:30:12 51°19.863 2°57.295 7.4745 3.129483 30.015512 -2.458615
2012-03-26 07:30:17 51°19.871 2°57.316 7.4735 3.129172 30.013018 -2.458615
2012-03-26 07:30:22 51°19.878 2°57.338 7.4683 3.128758 30.009426 -2.458615
2012-03-26 07:30:27 51°19.885 2°57.36 7.469 3.128345 30.005037 -2.458615
2012-03-26 07:30:32 51°19.892 2°57.382 7.4677 3.128034 30.000947 -2.458615
2012-03-26 07:30:37 51°19.898 2°57.404 7.4658 3.127931 29.998255 -2.458615
2012-03-26 07:30:42 51°19.905 2°57.426 7.4698 3.127931 29.998255 -2.458615
2012-03-26 07:30:47 51°19.911 2°57.449 7.4713 3.127827 29.995563 -2.458615
2012-03-26 07:30:52 51°19.918 2°57.471 7.467 3.127517 29.992271 -2.458615
2012-03-26 07:30:57 51°19.925 2°57.493 7.4678 3.127103 29.989477 -2.458615
2012-03-26 07:31:02 51°19.931 2°57.516 7.4673 3.126379 29.984188 -2.458615
2012-03-26 07:31:07 51°19.938 2°57.538 7.469 3.125551 29.977004 -2.458615
2012-03-26 07:31:12 51°19.945 2°57.56 7.467 3.125551 29.977004 -2.458615
2012-03-26 07:31:17 51°19.952 2°57.582 7.4707 3.124931 29.971217 -2.458615
2012-03-26 07:31:22 51°19.959 2°57.604 7.4666 3.12462 29.967926 -2.458615
2012-03-26 07:31:27 51°19.966 2°57.626 7.4642 3.12431 29.965431 -2.458615
2012-03-26 07:31:32 51°19.974 2°57.648 7.4639 3.124 29.962935 -2.458615
2012-03-26 07:31:37 51°19.981 2°57.67 7.464 3.123793 29.961538 -2.458615
2012-03-26 07:31:42 51°19.988 2°57.692 7.463 3.123793 29.961538 -2.458615
2012-03-26 07:31:47 51°19.995 2°57.714 7.4631 3.123482 29.959042 -2.458615
2012-03-26 07:31:52 51°20.002 2°57.736 7.4654 3.123379 29.957945 -2.458615
2012-03-26 07:31:57 51°20.009 2°57.758 7.4625 3.123276 29.956848 -2.458615
2012-03-26 07:32:02 51°20.017 2°57.78 7.4669 3.122965 29.955149 -2.458615
2012-03-26 07:32:07 51°20.024 2°57.802 7.4597 3.122655 29.952653 -2.458615
2012-03-26 07:32:12 51°20.031 2°57.825 7.4583 3.122655 29.952653 -2.458615
2012-03-26 07:32:17 51°20.038 2°57.846 7.4561 3.122345 29.949361 -2.458615
2012-03-26 07:32:22 51°20.045 2°57.868 7.4557 3.122034 29.946069 -2.458615
2012-03-26 07:32:27 51°20.053 2°57.89 7.4583 3.121827 29.943079 -2.458615
2012-03-26 07:32:32 51°20.06 2°57.912 7.4655 3.121724 29.941981 -2.458615
2012-03-26 07:32:37 51°20.068 2°57.933 7.4582 3.12162 29.94168 -2.458615
2012-03-26 07:32:42 51°20.076 2°57.954 7.4531 3.12162 29.94168 -2.458615
2012-03-26 07:32:47 51°20.084 2°57.975 7.4559 3.121414 29.941874 -2.458615
2012-03-26 07:32:52 51°20.092 2°57.996 7.4552 3.121207 29.941272 -2.458615
2012-03-26 07:32:57 51°20.101 2°58.017 7.4558 3.121 29.939874 -2.458615
2012-03-26 07:33:02 51°20.109 2°58.038 7.453 3.120896 29.939573 -2.458615
2012-03-26 07:33:07 51°20.117 2°58.059 7.4644 3.121 29.939874 -2.458615
2012-03-26 07:33:12 51°20.125 2°58.08 7.4558 3.121 29.939874 -2.458615
2012-03-26 07:33:17 51°20.133 2°58.102 7.4518 3.120896 29.939573 -2.458615
2012-03-26 07:33:22 51°20.141 2°58.123 7.4601 3.120586 29.937077 -2.458615
2012-03-26 07:33:27 51°20.149 2°58.145 7.4585 3.120379 29.935678 -2.458615
2012-03-26 07:33:32 51°20.157 2°58.166 7.4562 3.120069 29.933182 -2.458615
2012-03-26 07:33:37 51°20.165 2°58.188 7.4571 3.119965 29.931288 -2.458615
2012-03-26 07:33:42 51°20.173 2°58.209 7.4595 3.119965 29.931288 -2.458615
2012-03-26 07:33:47 51°20.18 2°58.23 7.4486 3.119758 29.928297 -2.458615
2012-03-26 07:33:52 51°20.188 2°58.252 7.4567 3.119345 29.925499 -2.458615
2012-03-26 07:33:57 51°20.196 2°58.274 7.4534 3.119034 29.922207 -2.458615
2012-03-26 07:34:02 51°20.204 2°58.295 7.4474 3.118827 29.919216 -2.458615
2012-03-26 07:34:07 51°20.211 2°58.316 7.4451 3.118724 29.917323 -2.458615
2012-03-26 07:34:12 51°20.218 2°58.337 7.4526 3.118724 29.917323 -2.458615
2012-03-26 07:34:17 51°20.226 2°58.358 7.4516 3.118517 29.915924 -2.458615
2012-03-26 07:34:22 51°20.234 2°58.38 7.4497 3.118207 29.913428 -2.458615
2012-03-26 07:34:27 51°20.241 2°58.402 7.4469 3.117896 29.910931 -2.458615
2012-03-26 07:34:32 51°20.249 2°58.424 7.4491 3.117689 29.909532 -2.458615
2012-03-26 07:34:37 51°20.256 2°58.445 7.4494 3.117379 29.908626 -2.458615
2012-03-26 07:34:42 51°20.264 2°58.467 7.4453 3.117379 29.908626 -2.458615
2012-03-26 07:34:47 51°20.272 2°58.488 7.4457 3.117069 29.90613 -2.458615
2012-03-26 07:34:52 51°20.279 2°58.51 7.442 3.117069 29.905334 -2.458615
2012-03-26 07:34:57 51°20.286 2°58.532 7.4417 3.117069 29.90613 -2.458615
2012-03-26 07:35:02 51°20.293 2°58.554 7.4433 3.116758 29.904428 -2.458615
2012-03-26 07:35:07 51°20.299 2°58.576 7.4467 3.116655 29.903331 -2.458615
2012-03-26 07:35:12 51°20.306 2°58.598 7.434 3.116655 29.903331 -2.458615
2012-03-26 07:35:17 51°20.313 2°58.62 7.4326 3.116655 29.904126 -2.458615
2012-03-26 07:35:22 51°20.319 2°58.643 7.4287 3.116345 29.901629 -2.458615
2012-03-26 07:35:27 51°20.325 2°58.665 7.4307 3.116138 29.901025 -2.458615
2012-03-26 07:35:32 51°20.331 2°58.687 7.4297 3.115827 29.899323 -2.458615
2012-03-26 07:35:37 51°20.336 2°58.71 7.4229 3.115724 29.898226 -2.458615
2012-03-26 07:35:42 51°20.342 2°58.733 7.4222 3.115724 29.898226 -2.458615
2012-03-26 07:35:47 51°20.347 2°58.756 7.4286 3.115621 29.897924 -2.458615
2012-03-26 07:35:52 51°20.352 2°58.78 7.4272 3.115207 29.896715 -2.458615
2012-03-26 07:35:57 51°20.357 2°58.803 7.423 3.114896 29.895013 -2.458615
2012-03-26 07:36:02 51°20.361 2°58.826 7.4202 3.114483 29.892213 -2.458615
2012-03-26 07:36:07 51°20.366 2°58.849 7.4221 3.114172 29.890511 -2.458615
2012-03-26 07:36:12 51°20.371 2°58.872 7.4196 3.114172 29.890511 -2.458615
2012-03-26 07:36:17 51°20.376 2°58.895 7.4182 3.113759 29.888506 -2.458615
2012-03-26 07:36:22 51°20.381 2°58.919 7.4168 3.113448 29.886008 -2.458615
2012-03-26 07:36:27 51°20.385 2°58.942 7.4214 3.113241 29.884607 -2.458615
2012-03-26 07:36:32 51°20.39 2°58.965 7.4119 3.113035 29.883207 -2.458615
2012-03-26 07:36:37 51°20.395 2°58.987 7.4126 3.112828 29.882602 -2.458615
2012-03-26 07:36:42 51°20.4 2°59.01 7.414 3.112828 29.882602 -2.458615
2012-03-26 07:36:47 51°20.405 2°59.033 7.4147 3.112517 29.880899 -2.458615
2012-03-26 07:36:52 51°20.41 2°59.056 7.4115 3.11231 29.879498 -2.458615
2012-03-26 07:36:57 51°20.415 2°59.08 7.4155 3.112104 29.878893 -2.458615
2012-03-26 07:37:02 51°20.421 2°59.103 7.4162 3.112 29.879386 -2.458615
2012-03-26 07:37:07 51°20.426 2°59.125 7.4089 3.111793 29.878781 -2.458615
2012-03-26 07:37:12 51°20.431 2°59.148 7.4165 3.111793 29.878781 -2.458615
2012-03-26 07:37:17 51°20.436 2°59.17 7.4107 3.111586 29.87738 -2.458615
2012-03-26 07:37:22 51°20.442 2°59.193 7.4093 3.111586 29.87738 -2.458615
2012-03-26 07:37:27 51°20.447 2°59.215 7.4131 3.111483 29.877078 -2.458615
2012-03-26 07:37:32 51°20.453 2°59.238 7.4117 3.111379 29.876775 -2.458615
2012-03-26 07:37:37 51°20.458 2°59.26 7.411 3.111483 29.877874 -2.458615
2012-03-26 07:37:42 51°20.464 2°59.283 7.4099 3.111483 29.877874 -2.458615
2012-03-26 07:37:47 51°20.469 2°59.306 7.4103 3.111483 29.878669 -2.458615
2012-03-26 07:37:52 51°20.475 2°59.328 7.4102 3.111379 29.877571 -2.458615
2012-03-26 07:37:57 51°20.48 2°59.352 7.4063 3.111379 29.878367 -2.458615
2012-03-26 07:38:02 51°20.486 2°59.374 7.4088 3.111379 29.878367 -2.458615
2012-03-26 07:38:07 51°20.491 2°59.396 7.4069 3.111379 29.878367 -2.458615
2012-03-26 07:38:12 51°20.497 2°59.418 7.4026 3.111379 29.878367 -2.458615
2012-03-26 07:38:17 51°20.503 2°59.44 7.4079 3.11138 29.879163 -2.458615
2012-03-26 07:38:22 51°20.51 2°59.462 7.4022 3.11138 29.879959 -2.458615
2012-03-26 07:38:27 51°20.516 2°59.484 7.4016 3.11138 29.880755 -2.458615
2012-03-26 07:38:32 51°20.523 2°59.505 7.3991 3.111276 29.880452 -2.458615
2012-03-26 07:38:37 51°20.529 2°59.528 7.3993 3.111276 29.881248 -2.458615
2012-03-26 07:38:42 51°20.536 2°59.549 7.3977 3.111276 29.881248 -2.458615
2012-03-26 07:38:47 51°20.543 2°59.57 7.3959 3.111276 29.882044 -2.458615
2012-03-26 07:38:52 51°20.55 2°59.591 7.3962 3.111276 29.882044 -2.458615
2012-03-26 07:38:57 51°20.557 2°59.612 7.3955 3.111276 29.88284 -2.458615
2012-03-26 07:39:02 51°20.565 2°59.634 7.3937 3.111276 29.884433 -2.458615
2012-03-26 07:39:07 51°20.572 2°59.654 7.3941 3.111276 29.886821 -2.458615
2012-03-26 07:39:12 51°20.579 2°59.675 7.3909 3.111276 29.886821 -2.458615
2012-03-26 07:39:17 51°20.587 2°59.696 7.3938 3.111276 29.887618 -2.458615
2012-03-26 07:39:22 51°20.594 2°59.717 7.3985 3.111276 29.888414 -2.458615
2012-03-26 07:39:27 51°20.601 2°59.738 7.3945 3.111276 29.889211 -2.458615
2012-03-26 07:39:32 51°20.608 2°59.76 7.3947 3.111276 29.890804 -2.458615
2012-03-26 07:39:37 51°20.614 2°59.782 7.3919 3.111276 29.890804 -2.458615
2012-03-26 07:39:42 51°20.62 2°59.803 7.3896 3.111276 29.890804 -2.458615
2012-03-26 07:39:47 51°20.626 2°59.826 7.3916 3.11138 29.893496 -2.458615
2012-03-26 07:39:52 51°20.632 2°59.848 7.3883 3.111483 29.893798 -2.458615
2012-03-26 07:39:58 51°20.639 2°59.874 7.3873 3.111483 29.894595 -2.458615
2012-03-26 07:40:02 51°20.644 2°59.892 7.3895 3.11169 29.895996 -2.458615
2012-03-26 07:40:07 51°20.651 2°59.914 7.3958 3.111793 29.897095 -2.458615
2012-03-26 07:40:12 51°20.658 2°59.935 7.388 3.111793 29.897095 -2.458615
2012-03-26 07:40:17 51°20.663 2°59.957 7.3898 3.111793 29.897892 -2.458615
2012-03-26 07:40:23 51°20.671 2°59.983 7.3889 3.111897 29.900585 -2.458615
2012-03-26 07:40:27 51°20.676 3°0 7.3946 3.111793 29.900283 -2.458615
2012-03-26 07:40:32 51°20.683 3°0.022 7.389 3.111794 29.901079 -2.458615
2012-03-26 07:40:38 51°20.691 3°0.047 7.3926 3.11169 29.900777 -2.458615
2012-03-26 07:40:43 51°20.697 3°0.069 7.3951 3.11169 29.900777 -2.458615
2012-03-26 07:40:47 51°20.702 3°0.086 7.3955 3.111897 29.902976 -2.458615
2012-03-26 07:40:52 51°20.708 3°0.108 7.3948 3.111794 29.902674 -2.458615
2012-03-26 07:40:57 51°20.713 3°0.13 7.3894 3.111897 29.902976 -2.458615
2012-03-26 07:41:02 51°20.718 3°0.153 7.3861 3.111794 29.901877 -2.458615
2012-03-26 07:41:07 51°20.723 3°0.175 7.3867 3.111897 29.902976 -2.458615
2012-03-26 07:41:12 51°20.727 3°0.197 7.3819 3.111897 29.902976 -2.458615
2012-03-26 07:41:17 51°20.732 3°0.22 7.3877 3.112 29.903278 -2.458615
2012-03-26 07:41:22 51°20.736 3°0.243 7.3856 3.112104 29.902783 -2.458615
2012-03-26 07:41:27 51°20.739 3°0.266 7.3822 3.112311 29.904184 -2.458615
2012-03-26 07:41:32 51°20.741 3°0.29 7.3776 3.112311 29.904981 -2.458615
2012-03-26 07:41:37 51°20.744 3°0.313 7.3811 3.112414 29.907674 -2.458615
2012-03-26 07:41:42 51°20.745 3°0.336 7.3779 3.112414 29.907674 -2.458615
2012-03-26 07:41:47 51°20.748 3°0.36 7.3839 3.112311 29.90817 -2.458615
2012-03-26 07:41:52 51°20.749 3°0.383 7.3773 3.112311 29.909764 -2.458615
2012-03-26 07:41:57 51°20.752 3°0.407 7.3761 3.112414 29.910066 -2.458615
2012-03-26 07:42:02 51°20.755 3°0.43 7.3767 3.112414 29.911661 -2.458615
2012-03-26 07:42:07 51°20.757 3°0.453 7.379 3.112311 29.912954 -2.458615
2012-03-26 07:42:12 51°20.76 3°0.476 7.3742 3.112311 29.912954 -2.458615
2012-03-26 07:42:17 51°20.764 3°0.5 7.3715 3.112311 29.914549 -2.458615
2012-03-26 07:42:22 51°20.768 3°0.522 7.3746 3.112207 29.914247 -2.458615
2012-03-26 07:42:27 51°20.773 3°0.545 7.3709 3.112207 29.915045 -2.458615
2012-03-26 07:42:32 51°20.777 3°0.567 7.3749 3.112001 29.913643 -2.458615
2012-03-26 07:42:37 51°20.783 3°0.589 7.3758 3.111897 29.913341 -2.458615
2012-03-26 07:42:42 51°20.788 3°0.611 7.3767 3.111897 29.913341 -2.458615
2012-03-26 07:42:47 51°20.794 3°0.633 7.3776 3.111897 29.914139 -2.458615
2012-03-26 07:42:52 51°20.799 3°0.655 7.3769 3.111794 29.914635 -2.458615
2012-03-26 07:42:57 51°20.805 3°0.677 7.3765 3.111587 29.914031 -2.458615
2012-03-26 07:43:02 51°20.81 3°0.699 7.3789 3.111483 29.913729 -2.458615
2012-03-26 07:43:07 51°20.816 3°0.721 7.3778 3.111276 29.91153 -2.458615
2012-03-26 07:43:12 51°20.822 3°0.743 7.3799 3.111276 29.91153 -2.458615
2012-03-26 07:43:17 51°20.827 3°0.764 7.3818 3.11138 29.911832 -2.458615
2012-03-26 07:43:22 51°20.832 3°0.787 7.3828 3.11138 29.910236 -2.458615
2012-03-26 07:43:27 51°20.838 3°0.809 7.3866 3.111483 29.911336 -2.458615
2012-03-26 07:43:32 51°20.842 3°0.831 7.387 3.111587 29.912436 -2.458615
2012-03-26 07:43:37 51°20.847 3°0.853 7.3846 3.111794 29.913837 -2.458615
2012-03-26 07:43:42 51°20.851 3°0.876 7.3868 3.111794 29.913837 -2.458615
2012-03-26 07:43:47 51°20.855 3°0.898 7.3883 3.111794 29.913039 -2.458615
2012-03-26 07:43:52 51°20.858 3°0.921 7.3866 3.111897 29.913341 -2.458615
2012-03-26 07:43:57 51°20.861 3°0.945 7.3875 3.112207 29.915842 -2.458615
2012-03-26 07:44:02 51°20.863 3°0.968 7.3855 3.112414 29.915648 -2.458615
2012-03-26 07:44:07 51°20.865 3°0.99 7.3873 3.112518 29.915152 -2.458615
2012-03-26 07:44:12 51°20.866 3°1.014 7.3858 3.112518 29.915152 -2.458615
2012-03-26 07:44:18 51°20.868 3°1.042 7.3874 3.112931 29.918752 -2.458615
2012-03-26 07:44:23 51°20.869 3°1.065 7.3869 3.113138 29.919356 -2.458615
2012-03-26 07:44:28 51°20.871 3°1.088 7.3866 3.112828 29.91526 -2.458615
2012-03-26 07:44:33 51°20.873 3°1.111 7.3887 3.114276 29.930651 -2.458615
2012-03-26 07:44:39 51°20.875 3°1.138 7.3929 3.114069 29.92925 -2.458615